﻿<?xml version="1.0" encoding="utf-8"?><gpx creator="Garmin Desktop App" version="1.1" xsi:schemaLocation="http://www.topografix.com/GPX/1/1 http://www.topografix.com/GPX/1/1/gpx.xsd http://www.garmin.com/xmlschemas/WaypointExtension/v1 http://www8.garmin.com/xmlschemas/WaypointExtensionv1.xsd http://www.garmin.com/xmlschemas/TrackPointExtension/v1 http://www.garmin.com/xmlschemas/TrackPointExtensionv1.xsd http://www.garmin.com/xmlschemas/GpxExtensions/v3 http://www8.garmin.com/xmlschemas/GpxExtensionsv3.xsd http://www.garmin.com/xmlschemas/ActivityExtension/v1 http://www8.garmin.com/xmlschemas/ActivityExtensionv1.xsd http://www.garmin.com/xmlschemas/AdventuresExtensions/v1 http://www8.garmin.com/xmlschemas/AdventuresExtensionv1.xsd http://www.garmin.com/xmlschemas/PressureExtension/v1 http://www.garmin.com/xmlschemas/PressureExtensionv1.xsd http://www.garmin.com/xmlschemas/TripExtensions/v1 http://www.garmin.com/xmlschemas/TripExtensionsv1.xsd http://www.garmin.com/xmlschemas/TripMetaDataExtensions/v1 http://www.garmin.com/xmlschemas/TripMetaDataExtensionsv1.xsd http://www.garmin.com/xmlschemas/ViaPointTransportationModeExtensions/v1 http://www.garmin.com/xmlschemas/ViaPointTransportationModeExtensionsv1.xsd http://www.garmin.com/xmlschemas/CreationTimeExtension/v1 http://www.garmin.com/xmlschemas/CreationTimeExtensionsv1.xsd http://www.garmin.com/xmlschemas/AccelerationExtension/v1 http://www.garmin.com/xmlschemas/AccelerationExtensionv1.xsd http://www.garmin.com/xmlschemas/PowerExtension/v1 http://www.garmin.com/xmlschemas/PowerExtensionv1.xsd http://www.garmin.com/xmlschemas/VideoExtension/v1 http://www.garmin.com/xmlschemas/VideoExtensionv1.xsd" xmlns="http://www.topografix.com/GPX/1/1" xmlns:xsi="http://www.w3.org/2001/XMLSchema-instance" xmlns:wptx1="http://www.garmin.com/xmlschemas/WaypointExtension/v1" xmlns:gpxtrx="http://www.garmin.com/xmlschemas/GpxExtensions/v3" xmlns:gpxtpx="http://www.garmin.com/xmlschemas/TrackPointExtension/v1" xmlns:gpxx="http://www.garmin.com/xmlschemas/GpxExtensions/v3" xmlns:trp="http://www.garmin.com/xmlschemas/TripExtensions/v1" xmlns:adv="http://www.garmin.com/xmlschemas/AdventuresExtensions/v1" xmlns:prs="http://www.garmin.com/xmlschemas/PressureExtension/v1" xmlns:tmd="http://www.garmin.com/xmlschemas/TripMetaDataExtensions/v1" xmlns:vptm="http://www.garmin.com/xmlschemas/ViaPointTransportationModeExtensions/v1" xmlns:ctx="http://www.garmin.com/xmlschemas/CreationTimeExtension/v1" xmlns:gpxacc="http://www.garmin.com/xmlschemas/AccelerationExtension/v1" xmlns:gpxpx="http://www.garmin.com/xmlschemas/PowerExtension/v1" xmlns:vidx1="http://www.garmin.com/xmlschemas/VideoExtension/v1">

  <metadata>
    <link href="http://www.garmin.com">
      <text>Garmin International</text>
    </link>
    <time>2021-01-27T11:28:10Z</time>
    <bounds maxlat="45.821540001779795" maxlon="7.939889961853623" minlat="45.756570026278496" minlon="7.899969974532723" />
  </metadata>

  <trk>
    <name>ca-di-janzo-alpe-maccagno</name>
    <desc>evca205000x                        </desc>
    <extensions>
      <gpxx:TrackExtension>
        <gpxx:DisplayColor>Yellow</gpxx:DisplayColor>
      </gpxx:TrackExtension>
    </extensions>
    <trkseg>
      <trkpt lat="45.821540001779795" lon="7.939889961853623">
        <ele>1282</ele>
        <time>2010-07-18T05:43:15Z</time>
      </trkpt>
      <trkpt lat="45.821509994566441" lon="7.939860038459301">
        <ele>1284</ele>
        <time>2010-07-18T05:43:18Z</time>
      </trkpt>
      <trkpt lat="45.821509994566441" lon="7.939849980175495">
        <ele>1287.8</ele>
        <time>2010-07-18T05:43:19Z</time>
      </trkpt>
      <trkpt lat="45.821509994566441" lon="7.939849980175495">
        <ele>1288.3</ele>
        <time>2010-07-18T05:43:21Z</time>
      </trkpt>
      <trkpt lat="45.821509994566441" lon="7.939849980175495">
        <ele>1294.5</ele>
        <time>2010-07-18T05:43:22Z</time>
      </trkpt>
      <trkpt lat="45.821509994566441" lon="7.939849980175495">
        <ele>1298.9000000000001</ele>
        <time>2010-07-18T05:43:25Z</time>
      </trkpt>
      <trkpt lat="45.821500020101666" lon="7.939840005710721">
        <ele>1302.3</ele>
        <time>2010-07-18T05:43:26Z</time>
      </trkpt>
      <trkpt lat="45.821489961817861" lon="7.939819972962141">
        <ele>1305.0999999999999</ele>
        <time>2010-07-18T05:43:29Z</time>
      </trkpt>
      <trkpt lat="45.82137999124825" lon="7.939549991860986">
        <ele>1330.0999999999999</ele>
        <time>2010-07-18T05:43:49Z</time>
      </trkpt>
      <trkpt lat="45.821370016783476" lon="7.939489977434278">
        <ele>1333</ele>
        <time>2010-07-18T05:43:53Z</time>
      </trkpt>
      <trkpt lat="45.821349984034896" lon="7.939419988542795">
        <ele>1336.9000000000001</ele>
        <time>2010-07-18T05:43:57Z</time>
      </trkpt>
      <trkpt lat="45.821319976821542" lon="7.939359974116087">
        <ele>1340.2</ele>
        <time>2010-07-18T05:44:04Z</time>
      </trkpt>
      <trkpt lat="45.821300027891994" lon="7.939299959689379">
        <ele>1343.0999999999999</ele>
        <time>2010-07-18T05:44:09Z</time>
      </trkpt>
      <trkpt lat="45.821300027891994" lon="7.939299959689379">
        <ele>1344.5</ele>
        <time>2010-07-18T05:44:12Z</time>
      </trkpt>
      <trkpt lat="45.821289969608188" lon="7.939259978011251">
        <ele>1346</ele>
        <time>2010-07-18T05:44:15Z</time>
      </trkpt>
      <trkpt lat="45.821279995143414" lon="7.939219996333122">
        <ele>1347.9000000000001</ele>
        <time>2010-07-18T05:44:19Z</time>
      </trkpt>
      <trkpt lat="45.821249987930059" lon="7.939099967479706">
        <ele>1350.8</ele>
        <time>2010-07-18T05:44:28Z</time>
      </trkpt>
      <trkpt lat="45.821189973503351" lon="7.938899975270033">
        <ele>1354.2</ele>
        <time>2010-07-18T05:44:40Z</time>
      </trkpt>
      <trkpt lat="45.821110010147095" lon="7.93872001580894">
        <ele>1357</ele>
        <time>2010-07-18T05:44:51Z</time>
      </trkpt>
      <trkpt lat="45.821059970185161" lon="7.938560005277395">
        <ele>1360.4000000000001</ele>
        <time>2010-07-18T05:45:02Z</time>
      </trkpt>
      <trkpt lat="45.820980006828904" lon="7.938309973105788">
        <ele>1363.3</ele>
        <time>2010-07-18T05:45:18Z</time>
      </trkpt>
      <trkpt lat="45.820899959653616" lon="7.938109980896115">
        <ele>1365.2</ele>
        <time>2010-07-18T05:45:34Z</time>
      </trkpt>
      <trkpt lat="45.820789989084005" lon="7.937830025330186">
        <ele>1366.2</ele>
        <time>2010-07-18T05:45:53Z</time>
      </trkpt>
      <trkpt lat="45.820680018514395" lon="7.937530037015677">
        <ele>1366.7</ele>
        <time>2010-07-18T05:46:12Z</time>
      </trkpt>
      <trkpt lat="45.820480026304722" lon="7.937489971518517">
        <ele>1367.5999999999999</ele>
        <time>2010-07-18T05:46:31Z</time>
      </trkpt>
      <trkpt lat="45.820410037413239" lon="7.937549985945225">
        <ele>1368.5999999999999</ele>
        <time>2010-07-18T05:46:42Z</time>
      </trkpt>
      <trkpt lat="45.820329990237951" lon="7.937540011480451">
        <ele>1368.5999999999999</ele>
        <time>2010-07-18T05:46:47Z</time>
      </trkpt>
      <trkpt lat="45.820139972493052" lon="7.93743004091084">
        <ele>1369.5</ele>
        <time>2010-07-18T05:47:06Z</time>
      </trkpt>
      <trkpt lat="45.819930005818605" lon="7.937189983204007">
        <ele>1368.0999999999999</ele>
        <time>2010-07-18T05:47:26Z</time>
      </trkpt>
      <trkpt lat="45.819760020822287" lon="7.936910027638078">
        <ele>1368.5999999999999</ele>
        <time>2010-07-18T05:47:47Z</time>
      </trkpt>
      <trkpt lat="45.819570003077388" lon="7.936599981039763">
        <ele>1366.7</ele>
        <time>2010-07-18T05:48:08Z</time>
      </trkpt>
      <trkpt lat="45.819360036402941" lon="7.9365099593997">
        <ele>1366.2</ele>
        <time>2010-07-18T05:48:27Z</time>
      </trkpt>
      <trkpt lat="45.819089971482754" lon="7.936599981039763">
        <ele>1365.7</ele>
        <time>2010-07-18T05:48:46Z</time>
      </trkpt>
      <trkpt lat="45.819019982591271" lon="7.936599981039763">
        <ele>1365.2</ele>
        <time>2010-07-18T05:48:50Z</time>
      </trkpt>
      <trkpt lat="45.818729968741536" lon="7.936559999361634">
        <ele>1366.7</ele>
        <time>2010-07-18T05:49:12Z</time>
      </trkpt>
      <trkpt lat="45.818640030920506" lon="7.93652999214828">
        <ele>1367.0999999999999</ele>
        <time>2010-07-18T05:49:17Z</time>
      </trkpt>
      <trkpt lat="45.818619998171926" lon="7.93652999214828">
        <ele>1367.5999999999999</ele>
        <time>2010-07-18T05:49:20Z</time>
      </trkpt>
      <trkpt lat="45.818520002067089" lon="7.936460003256798">
        <ele>1368.0999999999999</ele>
        <time>2010-07-18T05:49:28Z</time>
      </trkpt>
      <trkpt lat="45.818299977108836" lon="7.936209971085191">
        <ele>1370</ele>
        <time>2010-07-18T05:49:48Z</time>
      </trkpt>
      <trkpt lat="45.818129992112517" lon="7.935939989984036">
        <ele>1371.9000000000001</ele>
        <time>2010-07-18T05:50:08Z</time>
      </trkpt>
      <trkpt lat="45.817980039864779" lon="7.935640001669526">
        <ele>1372.9000000000001</ele>
        <time>2010-07-18T05:50:29Z</time>
      </trkpt>
      <trkpt lat="45.817760014906526" lon="7.935379995033145">
        <ele>1376.3</ele>
        <time>2010-07-18T05:50:53Z</time>
      </trkpt>
      <trkpt lat="45.817539989948273" lon="7.935140021145344">
        <ele>1379.5999999999999</ele>
        <time>2010-07-18T05:51:17Z</time>
      </trkpt>
      <trkpt lat="45.817309990525246" lon="7.934870040044189">
        <ele>1381.0999999999999</ele>
        <time>2010-07-18T05:51:43Z</time>
      </trkpt>
      <trkpt lat="45.817089965566993" lon="7.934629982337356">
        <ele>1383.5</ele>
        <time>2010-07-18T05:52:06Z</time>
      </trkpt>
      <trkpt lat="45.816949987784028" lon="7.934480030089617">
        <ele>1384.4000000000001</ele>
        <time>2010-07-18T05:52:22Z</time>
      </trkpt>
      <trkpt lat="45.816819984465837" lon="7.934369975700975">
        <ele>1384.9000000000001</ele>
        <time>2010-07-18T05:52:38Z</time>
      </trkpt>
      <trkpt lat="45.816680006682873" lon="7.934099994599819">
        <ele>1387.3</ele>
        <time>2010-07-18T05:52:58Z</time>
      </trkpt>
      <trkpt lat="45.816700039431453" lon="7.933749966323376">
        <ele>1388.8</ele>
        <time>2010-07-18T05:53:19Z</time>
      </trkpt>
      <trkpt lat="45.81658998504281" lon="7.933360040187836">
        <ele>1387.8</ele>
        <time>2010-07-18T05:53:43Z</time>
      </trkpt>
      <trkpt lat="45.816350011155009" lon="7.933430029079318">
        <ele>1385.9000000000001</ele>
        <time>2010-07-18T05:54:00Z</time>
      </trkpt>
      <trkpt lat="45.816169967874885" lon="7.933360040187836">
        <ele>1385.9000000000001</ele>
        <time>2010-07-18T05:54:17Z</time>
      </trkpt>
      <trkpt lat="45.816059997305274" lon="7.933080000802875">
        <ele>1386.4000000000001</ele>
        <time>2010-07-18T05:54:37Z</time>
      </trkpt>
      <trkpt lat="45.815999982878566" lon="7.932659983634949">
        <ele>1388.3</ele>
        <time>2010-07-18T05:55:01Z</time>
      </trkpt>
      <trkpt lat="45.815969975665212" lon="7.932229992002249">
        <ele>1390.7</ele>
        <time>2010-07-18T05:55:26Z</time>
      </trkpt>
      <trkpt lat="45.815799990668893" lon="7.931800000369549">
        <ele>1391.7</ele>
        <time>2010-07-18T05:55:54Z</time>
      </trkpt>
      <trkpt lat="45.815509976819158" lon="7.931409990414977">
        <ele>1391.2</ele>
        <time>2010-07-18T05:56:24Z</time>
      </trkpt>
      <trkpt lat="45.815249970182776" lon="7.93117999099195">
        <ele>1390.7</ele>
        <time>2010-07-18T05:56:47Z</time>
      </trkpt>
      <trkpt lat="45.815100017935038" lon="7.930929958820343">
        <ele>1390.2</ele>
        <time>2010-07-18T05:57:07Z</time>
      </trkpt>
      <trkpt lat="45.815000021830201" lon="7.930719992145896">
        <ele>1389.7</ele>
        <time>2010-07-18T05:57:22Z</time>
      </trkpt>
      <trkpt lat="45.814770022407174" lon="7.930740024894476">
        <ele>1388.8</ele>
        <time>2010-07-18T05:57:42Z</time>
      </trkpt>
      <trkpt lat="45.814789971336722" lon="7.93074999935925">
        <ele>1388.8</ele>
        <time>2010-07-18T05:57:59Z</time>
      </trkpt>
      <trkpt lat="45.814659968018532" lon="7.930540032684803">
        <ele>1386.8</ele>
        <time>2010-07-18T06:06:00Z</time>
      </trkpt>
      <trkpt lat="45.814519990235567" lon="7.930259993299842">
        <ele>1385.4000000000001</ele>
        <time>2010-07-18T06:06:20Z</time>
      </trkpt>
      <trkpt lat="45.814450001344085" lon="7.929969979450107">
        <ele>1384.4000000000001</ele>
        <time>2010-07-18T06:06:39Z</time>
      </trkpt>
      <trkpt lat="45.814340030774474" lon="7.929769987240434">
        <ele>1387.3</ele>
        <time>2010-07-18T06:06:58Z</time>
      </trkpt>
      <trkpt lat="45.814240034669638" lon="7.929639983922243">
        <ele>1389.7</ele>
        <time>2010-07-18T06:07:13Z</time>
      </trkpt>
      <trkpt lat="45.814110031351447" lon="7.929409984499216">
        <ele>1391.7</ele>
        <time>2010-07-18T06:07:35Z</time>
      </trkpt>
      <trkpt lat="45.814089998602867" lon="7.929100021719933">
        <ele>1393.0999999999999</ele>
        <time>2010-07-18T06:07:55Z</time>
      </trkpt>
      <trkpt lat="45.814150013029575" lon="7.928710011765361">
        <ele>1393.5999999999999</ele>
        <time>2010-07-18T06:08:16Z</time>
      </trkpt>
      <trkpt lat="45.814180020242929" lon="7.928320001810789">
        <ele>1393.5999999999999</ele>
        <time>2010-07-18T06:08:34Z</time>
      </trkpt>
      <trkpt lat="45.814140038564801" lon="7.9279999807477">
        <ele>1393.5999999999999</ele>
        <time>2010-07-18T06:08:54Z</time>
      </trkpt>
      <trkpt lat="45.813980028033257" lon="7.927690017968416">
        <ele>1391.7</ele>
        <time>2010-07-18T06:09:16Z</time>
      </trkpt>
      <trkpt lat="45.813780035823584" lon="7.927420036867261">
        <ele>1390.2</ele>
        <time>2010-07-18T06:09:36Z</time>
      </trkpt>
      <trkpt lat="45.813639974221587" lon="7.92716003023088">
        <ele>1390.2</ele>
        <time>2010-07-18T06:09:52Z</time>
      </trkpt>
      <trkpt lat="45.813499996438622" lon="7.926870016381145">
        <ele>1390.2</ele>
        <time>2010-07-18T06:10:11Z</time>
      </trkpt>
      <trkpt lat="45.813439982011914" lon="7.926500039175153">
        <ele>1389.7</ele>
        <time>2010-07-18T06:10:31Z</time>
      </trkpt>
      <trkpt lat="45.813230015337467" lon="7.926329970359802">
        <ele>1390.2</ele>
        <time>2010-07-18T06:10:50Z</time>
      </trkpt>
      <trkpt lat="45.813039997592568" lon="7.926040040329099">
        <ele>1387.3</ele>
        <time>2010-07-18T06:11:12Z</time>
      </trkpt>
      <trkpt lat="45.812879987061024" lon="7.925869971513748">
        <ele>1384.9000000000001</ele>
        <time>2010-07-18T06:11:27Z</time>
      </trkpt>
      <trkpt lat="45.812710002064705" lon="7.925599990412593">
        <ele>1383</ele>
        <time>2010-07-18T06:11:46Z</time>
      </trkpt>
      <trkpt lat="45.812489977106452" lon="7.925339983776212">
        <ele>1380.0999999999999</ele>
        <time>2010-07-18T06:12:06Z</time>
      </trkpt>
      <trkpt lat="45.812299959361553" lon="7.925030020996928">
        <ele>1378.7</ele>
        <time>2010-07-18T06:12:26Z</time>
      </trkpt>
      <trkpt lat="45.812069959938526" lon="7.924719974398613">
        <ele>1379.2</ele>
        <time>2010-07-18T06:12:50Z</time>
      </trkpt>
      <trkpt lat="45.811940040439367" lon="7.924310015514493">
        <ele>1379.2</ele>
        <time>2010-07-18T06:13:15Z</time>
      </trkpt>
      <trkpt lat="45.811799978837371" lon="7.92408999055624">
        <ele>1376.8</ele>
        <time>2010-07-18T06:13:35Z</time>
      </trkpt>
      <trkpt lat="45.81166997551918" lon="7.92395998723805">
        <ele>1375.3</ele>
        <time>2010-07-18T06:13:51Z</time>
      </trkpt>
      <trkpt lat="45.811520023271441" lon="7.923699980601668">
        <ele>1371.9000000000001</ele>
        <time>2010-07-18T06:14:10Z</time>
      </trkpt>
      <trkpt lat="45.811390019953251" lon="7.923350036144257">
        <ele>1369.5</ele>
        <time>2010-07-18T06:14:33Z</time>
      </trkpt>
      <trkpt lat="45.811149962246418" lon="7.923290021717548">
        <ele>1371.4000000000001</ele>
        <time>2010-07-18T06:14:52Z</time>
      </trkpt>
      <trkpt lat="45.811000009998679" lon="7.922970000654459">
        <ele>1371.4000000000001</ele>
        <time>2010-07-18T06:15:12Z</time>
      </trkpt>
      <trkpt lat="45.81080999225378" lon="7.922619972378016">
        <ele>1370.5</ele>
        <time>2010-07-18T06:15:35Z</time>
      </trkpt>
      <trkpt lat="45.810619974508882" lon="7.922340016812086">
        <ele>1369.5</ele>
        <time>2010-07-18T06:15:55Z</time>
      </trkpt>
      <trkpt lat="45.810510003939271" lon="7.922189980745316">
        <ele>1371.4000000000001</ele>
        <time>2010-07-18T06:16:12Z</time>
      </trkpt>
      <trkpt lat="45.810479996725917" lon="7.922149999067187">
        <ele>1372.4000000000001</ele>
        <time>2010-07-18T06:16:29Z</time>
      </trkpt>
      <trkpt lat="45.810430040583014" lon="7.921999963000417">
        <ele>1373.9000000000001</ele>
        <time>2010-07-18T06:17:03Z</time>
      </trkpt>
      <trkpt lat="45.810349993407726" lon="7.921829978004098">
        <ele>1375.8</ele>
        <time>2010-07-18T06:17:19Z</time>
      </trkpt>
      <trkpt lat="45.810259971767664" lon="7.921539964154363">
        <ele>1379.2</ele>
        <time>2010-07-18T06:17:39Z</time>
      </trkpt>
      <trkpt lat="45.810180008411407" lon="7.92133997194469">
        <ele>1381.5</ele>
        <time>2010-07-18T06:17:58Z</time>
      </trkpt>
      <trkpt lat="45.810129968449473" lon="7.921160012483597">
        <ele>1384.4000000000001</ele>
        <time>2010-07-18T06:18:13Z</time>
      </trkpt>
      <trkpt lat="45.810040030628443" lon="7.920960020273924">
        <ele>1387.3</ele>
        <time>2010-07-18T06:18:32Z</time>
      </trkpt>
      <trkpt lat="45.8099299762398" lon="7.920790035277605">
        <ele>1389.2</ele>
        <time>2010-07-18T06:18:52Z</time>
      </trkpt>
      <trkpt lat="45.80984003841877" lon="7.920530028641224">
        <ele>1392.0999999999999</ele>
        <time>2010-07-18T06:19:14Z</time>
      </trkpt>
      <trkpt lat="45.809739958494902" lon="7.920359959825873">
        <ele>1394.5</ele>
        <time>2010-07-18T06:19:30Z</time>
      </trkpt>
      <trkpt lat="45.809659995138645" lon="7.920149993151426">
        <ele>1397.4000000000001</ele>
        <time>2010-07-18T06:19:50Z</time>
      </trkpt>
      <trkpt lat="45.809569973498583" lon="7.919929968193173">
        <ele>1400.3</ele>
        <time>2010-07-18T06:20:09Z</time>
      </trkpt>
      <trkpt lat="45.809450028464198" lon="7.91964003816247">
        <ele>1403.2</ele>
        <time>2010-07-18T06:20:32Z</time>
      </trkpt>
      <trkpt lat="45.809309966862202" lon="7.919399980455637">
        <ele>1405.0999999999999</ele>
        <time>2010-07-18T06:20:52Z</time>
      </trkpt>
      <trkpt lat="45.809120032936335" lon="7.919239969924092">
        <ele>1406.0999999999999</ele>
        <time>2010-07-18T06:21:11Z</time>
      </trkpt>
      <trkpt lat="45.808969996869564" lon="7.919129999354482">
        <ele>1406.0999999999999</ele>
        <time>2010-07-18T06:21:26Z</time>
      </trkpt>
      <trkpt lat="45.808779979124665" lon="7.919129999354482">
        <ele>1407</ele>
        <time>2010-07-18T06:21:42Z</time>
      </trkpt>
      <trkpt lat="45.808760030195117" lon="7.919129999354482">
        <ele>1406.5999999999999</ele>
        <time>2010-07-18T06:22:08Z</time>
      </trkpt>
      <trkpt lat="45.808719964697957" lon="7.919120024889708">
        <ele>1406.5999999999999</ele>
        <time>2010-07-18T06:22:16Z</time>
      </trkpt>
      <trkpt lat="45.808670008555055" lon="7.919099992141128">
        <ele>1407</ele>
        <time>2010-07-18T06:22:20Z</time>
      </trkpt>
      <trkpt lat="45.80850999802351" lon="7.918930007144809">
        <ele>1407.5</ele>
        <time>2010-07-18T06:22:38Z</time>
      </trkpt>
      <trkpt lat="45.808319980278611" lon="7.91873998939991">
        <ele>1407</ele>
        <time>2010-07-18T06:22:55Z</time>
      </trkpt>
      <trkpt lat="45.80808000639081" lon="7.918600011616945">
        <ele>1406.5999999999999</ele>
        <time>2010-07-18T06:23:14Z</time>
      </trkpt>
      <trkpt lat="45.808040024712682" lon="7.918590037152171">
        <ele>1407</ele>
        <time>2010-07-18T06:23:18Z</time>
      </trkpt>
      <trkpt lat="45.807840032503009" lon="7.918500015512109">
        <ele>1407.5</ele>
        <time>2010-07-18T06:23:33Z</time>
      </trkpt>
      <trkpt lat="45.807819999754429" lon="7.918500015512109">
        <ele>1407.5</ele>
        <time>2010-07-18T06:23:34Z</time>
      </trkpt>
      <trkpt lat="45.807580025866628" lon="7.91833003051579">
        <ele>1407.5</ele>
        <time>2010-07-18T06:23:53Z</time>
      </trkpt>
      <trkpt lat="45.807410040870309" lon="7.918149987235665">
        <ele>1408.5</ele>
        <time>2010-07-18T06:24:09Z</time>
      </trkpt>
      <trkpt lat="45.807169983163476" lon="7.918040016666055">
        <ele>1409.4000000000001</ele>
        <time>2010-07-18T06:24:28Z</time>
      </trkpt>
      <trkpt lat="45.806990023702383" lon="7.917989976704121">
        <ele>1411.3</ele>
        <time>2010-07-18T06:24:45Z</time>
      </trkpt>
      <trkpt lat="45.806779973208904" lon="7.917929962277412">
        <ele>1412.3</ele>
        <time>2010-07-18T06:25:01Z</time>
      </trkpt>
      <trkpt lat="45.806670002639294" lon="7.917910013347864">
        <ele>1411.8</ele>
        <time>2010-07-18T06:25:14Z</time>
      </trkpt>
      <trkpt lat="45.806549973785877" lon="7.91785997338593">
        <ele>1413.3</ele>
        <time>2010-07-18T06:25:33Z</time>
      </trkpt>
      <trkpt lat="45.806370014324784" lon="7.917640032246709">
        <ele>1414.7</ele>
        <time>2010-07-18T06:25:51Z</time>
      </trkpt>
      <trkpt lat="45.806140014901757" lon="7.91742998175323">
        <ele>1416.2</ele>
        <time>2010-07-18T06:26:10Z</time>
      </trkpt>
      <trkpt lat="45.805989978834987" lon="7.917129993438721">
        <ele>1418.5999999999999</ele>
        <time>2010-07-18T06:26:31Z</time>
      </trkpt>
      <trkpt lat="45.805829968303442" lon="7.916920026764274">
        <ele>1419.0999999999999</ele>
        <time>2010-07-18T06:26:49Z</time>
      </trkpt>
      <trkpt lat="45.805650008842349" lon="7.916820030659437">
        <ele>1421</ele>
        <time>2010-07-18T06:27:05Z</time>
      </trkpt>
      <trkpt lat="45.80548002384603" lon="7.916769990697503">
        <ele>1423.8</ele>
        <time>2010-07-18T06:27:23Z</time>
      </trkpt>
      <trkpt lat="45.805359994992614" lon="7.916669994592667">
        <ele>1426.7</ele>
        <time>2010-07-18T06:27:40Z</time>
      </trkpt>
      <trkpt lat="45.805220017209649" lon="7.916620038449764">
        <ele>1430.0999999999999</ele>
        <time>2010-07-18T06:27:56Z</time>
      </trkpt>
      <trkpt lat="45.805090013891459" lon="7.916500009596348">
        <ele>1433</ele>
        <time>2010-07-18T06:28:15Z</time>
      </trkpt>
      <trkpt lat="45.804979959502816" lon="7.916349973529577">
        <ele>1435.9000000000001</ele>
        <time>2010-07-18T06:28:34Z</time>
      </trkpt>
      <trkpt lat="45.804969985038042" lon="7.916339999064803">
        <ele>1435.9000000000001</ele>
        <time>2010-07-18T06:28:35Z</time>
      </trkpt>
      <trkpt lat="45.804809974506497" lon="7.916149981319904">
        <ele>1437.3</ele>
        <time>2010-07-18T06:28:54Z</time>
      </trkpt>
      <trkpt lat="45.804669996723533" lon="7.915889974683523">
        <ele>1439.7</ele>
        <time>2010-07-18T06:29:16Z</time>
      </trkpt>
      <trkpt lat="45.80462004058063" lon="7.91568998247385">
        <ele>1442.5999999999999</ele>
        <time>2010-07-18T06:29:33Z</time>
      </trkpt>
      <trkpt lat="45.80462004058063" lon="7.915499964728952">
        <ele>1445.5</ele>
        <time>2010-07-18T06:29:51Z</time>
      </trkpt>
      <trkpt lat="45.804609982296824" lon="7.915340038016439">
        <ele>1446.9000000000001</ele>
        <time>2010-07-18T06:30:03Z</time>
      </trkpt>
      <trkpt lat="45.804549967870116" lon="7.915069973096252">
        <ele>1450.3</ele>
        <time>2010-07-18T06:30:22Z</time>
      </trkpt>
      <trkpt lat="45.804439997300506" lon="7.914769984781742">
        <ele>1452.7</ele>
        <time>2010-07-18T06:30:44Z</time>
      </trkpt>
      <trkpt lat="45.804360033944249" lon="7.914449963718653">
        <ele>1455.0999999999999</ele>
        <time>2010-07-18T06:31:07Z</time>
      </trkpt>
      <trkpt lat="45.804289961233735" lon="7.914260029792786">
        <ele>1458.5</ele>
        <time>2010-07-18T06:31:24Z</time>
      </trkpt>
      <trkpt lat="45.804189965128899" lon="7.914030030369759">
        <ele>1460.8</ele>
        <time>2010-07-18T06:31:43Z</time>
      </trkpt>
      <trkpt lat="45.804070020094514" lon="7.913770023733378">
        <ele>1463.7</ele>
        <time>2010-07-18T06:32:06Z</time>
      </trkpt>
      <trkpt lat="45.80401998013258" lon="7.913659969344735">
        <ele>1464.7</ele>
        <time>2010-07-18T06:32:18Z</time>
      </trkpt>
      <trkpt lat="45.803919984027743" lon="7.913549998775125">
        <ele>1464.7</ele>
        <time>2010-07-18T06:32:34Z</time>
      </trkpt>
      <trkpt lat="45.803749999031425" lon="7.913329973816872">
        <ele>1466.0999999999999</ele>
        <time>2010-07-18T06:32:55Z</time>
      </trkpt>
      <trkpt lat="45.803619995713234" lon="7.913039959967136">
        <ele>1467.0999999999999</ele>
        <time>2010-07-18T06:33:15Z</time>
      </trkpt>
      <trkpt lat="45.803440036252141" lon="7.912780037149787">
        <ele>1469</ele>
        <time>2010-07-18T06:33:35Z</time>
      </trkpt>
      <trkpt lat="45.803220011293888" lon="7.912490023300052">
        <ele>1470.5</ele>
        <time>2010-07-18T06:33:59Z</time>
      </trkpt>
      <trkpt lat="45.803020019084215" lon="7.912209983915091">
        <ele>1472.4000000000001</ele>
        <time>2010-07-18T06:34:22Z</time>
      </trkpt>
      <trkpt lat="45.802820026874542" lon="7.911970010027289">
        <ele>1473.4000000000001</ele>
        <time>2010-07-18T06:34:43Z</time>
      </trkpt>
      <trkpt lat="45.802609976381063" lon="7.911719977855682">
        <ele>1474.3</ele>
        <time>2010-07-18T06:35:04Z</time>
      </trkpt>
      <trkpt lat="45.802379976958036" lon="7.911589974537492">
        <ele>1475.8</ele>
        <time>2010-07-18T06:35:23Z</time>
      </trkpt>
      <trkpt lat="45.802170010283589" lon="7.911449996754527">
        <ele>1478.2</ele>
        <time>2010-07-18T06:35:43Z</time>
      </trkpt>
      <trkpt lat="45.801970018073916" lon="7.911310018971562">
        <ele>1479.5999999999999</ele>
        <time>2010-07-18T06:36:04Z</time>
      </trkpt>
      <trkpt lat="45.801719985902309" lon="7.911210022866726">
        <ele>1481.0999999999999</ele>
        <time>2010-07-18T06:36:25Z</time>
      </trkpt>
      <trkpt lat="45.80144003033638" lon="7.9112199973315">
        <ele>1483</ele>
        <time>2010-07-18T06:36:48Z</time>
      </trkpt>
      <trkpt lat="45.801329975947738" lon="7.91119996458292">
        <ele>1482.5</ele>
        <time>2010-07-18T06:37:00Z</time>
      </trkpt>
      <trkpt lat="45.801199972629547" lon="7.911080019548535">
        <ele>1482.5</ele>
        <time>2010-07-18T06:37:19Z</time>
      </trkpt>
      <trkpt lat="45.801199972629547" lon="7.911080019548535">
        <ele>1483</ele>
        <time>2010-07-18T06:37:21Z</time>
      </trkpt>
      <trkpt lat="45.801380015909672" lon="7.911259979009628">
        <ele>1482.5</ele>
        <time>2010-07-18T06:37:38Z</time>
      </trkpt>
      <trkpt lat="45.801350008696318" lon="7.91124003008008">
        <ele>1483</ele>
        <time>2010-07-18T06:37:57Z</time>
      </trkpt>
      <trkpt lat="45.801189998164773" lon="7.911029979586601">
        <ele>1482.5</ele>
        <time>2010-07-18T06:38:16Z</time>
      </trkpt>
      <trkpt lat="45.801169965416193" lon="7.910929983481765">
        <ele>1482.5</ele>
        <time>2010-07-18T06:38:28Z</time>
      </trkpt>
      <trkpt lat="45.801139958202839" lon="7.910699984058738">
        <ele>1482.5</ele>
        <time>2010-07-18T06:39:07Z</time>
      </trkpt>
      <trkpt lat="45.801050020381808" lon="7.910379962995648">
        <ele>1483.5</ele>
        <time>2010-07-18T06:39:26Z</time>
      </trkpt>
      <trkpt lat="45.800860002636909" lon="7.910109981894493">
        <ele>1484.9000000000001</ele>
        <time>2010-07-18T06:39:46Z</time>
      </trkpt>
      <trkpt lat="45.800690017640591" lon="7.910030018538237">
        <ele>1487.8</ele>
        <time>2010-07-18T06:40:04Z</time>
      </trkpt>
      <trkpt lat="45.800639977678657" lon="7.910030018538237">
        <ele>1487.8</ele>
        <time>2010-07-18T06:40:08Z</time>
      </trkpt>
      <trkpt lat="45.800569988787174" lon="7.909990036860108">
        <ele>1487.8</ele>
        <time>2010-07-18T06:40:20Z</time>
      </trkpt>
      <trkpt lat="45.800750032067299" lon="7.909990036860108">
        <ele>1487.3</ele>
        <time>2010-07-18T06:40:38Z</time>
      </trkpt>
      <trkpt lat="45.80083996988833" lon="7.910000011324883">
        <ele>1487.3</ele>
        <time>2010-07-18T06:40:47Z</time>
      </trkpt>
      <trkpt lat="45.800869977101684" lon="7.909970004111528">
        <ele>1488.7</ele>
        <time>2010-07-18T06:40:58Z</time>
      </trkpt>
      <trkpt lat="45.800829995423555" lon="7.9099300224334">
        <ele>1489.2</ele>
        <time>2010-07-18T06:41:02Z</time>
      </trkpt>
      <trkpt lat="45.800699992105365" lon="7.909749979153276">
        <ele>1492.5999999999999</ele>
        <time>2010-07-18T06:41:22Z</time>
      </trkpt>
      <trkpt lat="45.80053998157382" lon="7.909600026905537">
        <ele>1494.5</ele>
        <time>2010-07-18T06:41:42Z</time>
      </trkpt>
      <trkpt lat="45.800400003790855" lon="7.909449990838766">
        <ele>1496</ele>
        <time>2010-07-18T06:42:00Z</time>
      </trkpt>
      <trkpt lat="45.800320040434599" lon="7.909389976412058">
        <ele>1497.9000000000001</ele>
        <time>2010-07-18T06:42:12Z</time>
      </trkpt>
      <trkpt lat="45.800249967724085" lon="7.909270031377673">
        <ele>1499.8</ele>
        <time>2010-07-18T06:42:26Z</time>
      </trkpt>
      <trkpt lat="45.800170004367828" lon="7.909080013632774">
        <ele>1501.7</ele>
        <time>2010-07-18T06:42:43Z</time>
      </trkpt>
      <trkpt lat="45.800139997154474" lon="7.90905000641942">
        <ele>1500.7</ele>
        <time>2010-07-18T06:42:54Z</time>
      </trkpt>
      <trkpt lat="45.800119964405894" lon="7.909040031954646">
        <ele>1503.5999999999999</ele>
        <time>2010-07-18T06:42:55Z</time>
      </trkpt>
      <trkpt lat="45.80010998994112" lon="7.909040031954646">
        <ele>1503.2</ele>
        <time>2010-07-18T06:42:57Z</time>
      </trkpt>
      <trkpt lat="45.800090041011572" lon="7.90902997367084">
        <ele>1501.7</ele>
        <time>2010-07-18T06:42:58Z</time>
      </trkpt>
      <trkpt lat="45.799970012158155" lon="7.908969959244132">
        <ele>1503.2</ele>
        <time>2010-07-18T06:43:14Z</time>
      </trkpt>
      <trkpt lat="45.799960037693381" lon="7.908980017527938">
        <ele>1503.5999999999999</ele>
        <time>2010-07-18T06:43:40Z</time>
      </trkpt>
      <trkpt lat="45.800149971619248" lon="7.90905000641942">
        <ele>1502.7</ele>
        <time>2010-07-18T06:43:59Z</time>
      </trkpt>
      <trkpt lat="45.800149971619248" lon="7.909040031954646">
        <ele>1502.2</ele>
        <time>2010-07-18T06:44:29Z</time>
      </trkpt>
      <trkpt lat="45.800209986045957" lon="7.909059980884194">
        <ele>1502.7</ele>
        <time>2010-07-18T06:44:50Z</time>
      </trkpt>
      <trkpt lat="45.800209986045957" lon="7.909070039168">
        <ele>1502.2</ele>
        <time>2010-07-18T06:44:57Z</time>
      </trkpt>
      <trkpt lat="45.800019968301058" lon="7.909010024741292">
        <ele>1503.2</ele>
        <time>2010-07-18T06:45:13Z</time>
      </trkpt>
      <trkpt lat="45.799970012158155" lon="7.908989991992712">
        <ele>1503.5999999999999</ele>
        <time>2010-07-18T06:45:36Z</time>
      </trkpt>
      <trkpt lat="45.799889964982867" lon="7.908989991992712">
        <ele>1503.5999999999999</ele>
        <time>2010-07-18T06:47:05Z</time>
      </trkpt>
      <trkpt lat="45.79965996555984" lon="7.908989991992712">
        <ele>1504.0999999999999</ele>
        <time>2010-07-18T06:47:27Z</time>
      </trkpt>
      <trkpt lat="45.799489980563521" lon="7.908910028636456">
        <ele>1506</ele>
        <time>2010-07-18T06:47:43Z</time>
      </trkpt>
      <trkpt lat="45.799399958923459" lon="7.908910028636456">
        <ele>1506.5</ele>
        <time>2010-07-18T06:47:55Z</time>
      </trkpt>
      <trkpt lat="45.79922997392714" lon="7.908869963139296">
        <ele>1508.5</ele>
        <time>2010-07-18T06:48:14Z</time>
      </trkpt>
      <trkpt lat="45.799169959500432" lon="7.908889995887876">
        <ele>1509.9000000000001</ele>
        <time>2010-07-18T06:48:29Z</time>
      </trkpt>
      <trkpt lat="45.799169959500432" lon="7.908840039744973">
        <ele>1509.9000000000001</ele>
        <time>2010-07-18T06:48:41Z</time>
      </trkpt>
      <trkpt lat="45.799029981717467" lon="7.908759992569685">
        <ele>1510.9000000000001</ele>
        <time>2010-07-18T06:48:56Z</time>
      </trkpt>
      <trkpt lat="45.798980025574565" lon="7.908759992569685">
        <ele>1510.4000000000001</ele>
        <time>2010-07-18T06:49:04Z</time>
      </trkpt>
      <trkpt lat="45.798829989507794" lon="7.908789999783039">
        <ele>1511.8</ele>
        <time>2010-07-18T06:49:15Z</time>
      </trkpt>
      <trkpt lat="45.798760000616312" lon="7.908580033108592">
        <ele>1514.2</ele>
        <time>2010-07-18T06:49:31Z</time>
      </trkpt>
      <trkpt lat="45.79869001172483" lon="7.90849001146853">
        <ele>1517.0999999999999</ele>
        <time>2010-07-18T06:49:46Z</time>
      </trkpt>
      <trkpt lat="45.798550033941865" lon="7.908399989828467">
        <ele>1519.5</ele>
        <time>2010-07-18T06:50:02Z</time>
      </trkpt>
      <trkpt lat="45.798479961231351" lon="7.908309968188405">
        <ele>1521.9000000000001</ele>
        <time>2010-07-18T06:50:17Z</time>
      </trkpt>
      <trkpt lat="45.798409972339869" lon="7.908199997618794">
        <ele>1524.8</ele>
        <time>2010-07-18T06:50:32Z</time>
      </trkpt>
      <trkpt lat="45.798339983448386" lon="7.908109975978732">
        <ele>1527.7</ele>
        <time>2010-07-18T06:50:48Z</time>
      </trkpt>
      <trkpt lat="45.79823998734355" lon="7.908049961552024">
        <ele>1530.5999999999999</ele>
        <time>2010-07-18T06:51:04Z</time>
      </trkpt>
      <trkpt lat="45.798079976812005" lon="7.907879976555705">
        <ele>1531.5</ele>
        <time>2010-07-18T06:51:20Z</time>
      </trkpt>
      <trkpt lat="45.798019962385297" lon="7.907540006563067">
        <ele>1530.5999999999999</ele>
        <time>2010-07-18T06:51:43Z</time>
      </trkpt>
      <trkpt lat="45.797979980707169" lon="7.907389970496297">
        <ele>1532</ele>
        <time>2010-07-18T06:51:53Z</time>
      </trkpt>
      <trkpt lat="45.797930024564266" lon="7.907319981604815">
        <ele>1531.5</ele>
        <time>2010-07-18T06:51:58Z</time>
      </trkpt>
      <trkpt lat="45.79780999571085" lon="7.906989986076951">
        <ele>1532.5</ele>
        <time>2010-07-18T06:52:21Z</time>
      </trkpt>
      <trkpt lat="45.797719974070787" lon="7.906740037724376">
        <ele>1533</ele>
        <time>2010-07-18T06:52:37Z</time>
      </trkpt>
      <trkpt lat="45.797679992392659" lon="7.906590001657605">
        <ele>1535.4000000000001</ele>
        <time>2010-07-18T06:52:52Z</time>
      </trkpt>
      <trkpt lat="45.797640010714531" lon="7.906529987230897">
        <ele>1535.9000000000001</ele>
        <time>2010-07-18T06:52:57Z</time>
      </trkpt>
      <trkpt lat="45.797549989074469" lon="7.906450023874641">
        <ele>1536.3</ele>
        <time>2010-07-18T06:53:08Z</time>
      </trkpt>
      <trkpt lat="45.797440018504858" lon="7.906329995021224">
        <ele>1536.8</ele>
        <time>2010-07-18T06:53:20Z</time>
      </trkpt>
      <trkpt lat="45.79740003682673" lon="7.906290013343096">
        <ele>1536.3</ele>
        <time>2010-07-18T06:53:24Z</time>
      </trkpt>
      <trkpt lat="45.797219993546605" lon="7.906220024451613">
        <ele>1536.3</ele>
        <time>2010-07-18T06:53:41Z</time>
      </trkpt>
      <trkpt lat="45.797210019081831" lon="7.906199991703033">
        <ele>1536.3</ele>
        <time>2010-07-18T06:53:42Z</time>
      </trkpt>
      <trkpt lat="45.797040034085512" lon="7.906009973958135">
        <ele>1534.4000000000001</ele>
        <time>2010-07-18T06:54:00Z</time>
      </trkpt>
      <trkpt lat="45.796869965270162" lon="7.905820040032268">
        <ele>1534.9000000000001</ele>
        <time>2010-07-18T06:54:17Z</time>
      </trkpt>
      <trkpt lat="45.796790001913905" lon="7.905579982325435">
        <ele>1535.4000000000001</ele>
        <time>2010-07-18T06:54:33Z</time>
      </trkpt>
      <trkpt lat="45.796759994700551" lon="7.905489960685372">
        <ele>1535.4000000000001</ele>
        <time>2010-07-18T06:54:51Z</time>
      </trkpt>
      <trkpt lat="45.79665002413094" lon="7.905300026759505">
        <ele>1536.3</ele>
        <time>2010-07-18T06:55:18Z</time>
      </trkpt>
      <trkpt lat="45.796509962528944" lon="7.90501001290977">
        <ele>1536.3</ele>
        <time>2010-07-18T06:55:34Z</time>
      </trkpt>
      <trkpt lat="45.796390017494559" lon="7.904959972947836">
        <ele>1545.5999999999999</ele>
        <time>2009-07-19T13:01:53Z</time>
      </trkpt>
      <trkpt lat="45.796350035816431" lon="7.905029961839318">
        <ele>1544.7</ele>
        <time>2009-07-19T13:01:36Z</time>
      </trkpt>
      <trkpt lat="45.796350035816431" lon="7.905040020123124">
        <ele>1544.7</ele>
        <time>2009-07-19T13:01:34Z</time>
      </trkpt>
      <trkpt lat="45.796309970319271" lon="7.905110009014607">
        <ele>1542</ele>
        <time>2009-07-19T13:01:20Z</time>
      </trkpt>
      <trkpt lat="45.796250039711595" lon="7.905189972370863">
        <ele>1541.7</ele>
        <time>2009-07-19T13:01:01Z</time>
      </trkpt>
      <trkpt lat="45.79609002918005" lon="7.905370015650988">
        <ele>1542</ele>
        <time>2009-07-19T13:00:42Z</time>
      </trkpt>
      <trkpt lat="45.796039989218116" lon="7.905360041186214">
        <ele>1543.2</ele>
        <time>2009-07-19T13:00:38Z</time>
      </trkpt>
      <trkpt lat="45.795879978686571" lon="7.905230037868023">
        <ele>1544.7</ele>
        <time>2009-07-19T13:00:23Z</time>
      </trkpt>
      <trkpt lat="45.795749975368381" lon="7.905119983479381">
        <ele>1546.9000000000001</ele>
        <time>2009-07-19T13:00:11Z</time>
      </trkpt>
      <trkpt lat="45.795630030333996" lon="7.90498998016119">
        <ele>1547.5</ele>
        <time>2009-07-19T12:59:55Z</time>
      </trkpt>
      <trkpt lat="45.795549983158708" lon="7.904949998483062">
        <ele>1546.9000000000001</ele>
        <time>2009-07-19T12:59:46Z</time>
      </trkpt>
      <trkpt lat="45.795479994267225" lon="7.904899958521128">
        <ele>1546.9000000000001</ele>
        <time>2009-07-19T12:59:37Z</time>
      </trkpt>
      <trkpt lat="45.795400030910969" lon="7.904770039021969">
        <ele>1545</ele>
        <time>2009-07-19T12:59:25Z</time>
      </trkpt>
      <trkpt lat="45.795379998162389" lon="7.904750006273389">
        <ele>1544.0999999999999</ele>
        <time>2009-07-19T12:59:22Z</time>
      </trkpt>
      <trkpt lat="45.795259969308972" lon="7.904589995741844">
        <ele>1545.5999999999999</ele>
        <time>2009-07-19T12:59:10Z</time>
      </trkpt>
      <trkpt lat="45.795240020379424" lon="7.904520006850362">
        <ele>1546.5999999999999</ele>
        <time>2009-07-19T12:59:04Z</time>
      </trkpt>
      <trkpt lat="45.795200038701296" lon="7.904459992423654">
        <ele>1546.5999999999999</ele>
        <time>2009-07-19T12:58:57Z</time>
      </trkpt>
      <trkpt lat="45.795089984312654" lon="7.904299981892109">
        <ele>1546.5999999999999</ele>
        <time>2009-07-19T12:58:42Z</time>
      </trkpt>
      <trkpt lat="45.795059977099299" lon="7.904180036857724">
        <ele>1547.8</ele>
        <time>2009-07-19T12:58:35Z</time>
      </trkpt>
      <trkpt lat="45.794940032064915" lon="7.90402002632618">
        <ele>1548.4000000000001</ele>
        <time>2009-07-19T12:58:24Z</time>
      </trkpt>
      <trkpt lat="45.794889992102981" lon="7.903950037434697">
        <ele>1549.5999999999999</ele>
        <time>2009-07-19T12:58:17Z</time>
      </trkpt>
      <trkpt lat="45.794769963249564" lon="7.903769994154573">
        <ele>1549.9000000000001</ele>
        <time>2009-07-19T12:58:03Z</time>
      </trkpt>
      <trkpt lat="45.794650018215179" lon="7.90372003801167">
        <ele>1550.5</ele>
        <time>2009-07-19T12:57:53Z</time>
      </trkpt>
      <trkpt lat="45.794610036537051" lon="7.903669998049736">
        <ele>1551.4000000000001</ele>
        <time>2009-07-19T12:57:48Z</time>
      </trkpt>
      <trkpt lat="45.794590003788471" lon="7.903669998049736">
        <ele>1552</ele>
        <time>2009-07-19T12:57:46Z</time>
      </trkpt>
      <trkpt lat="45.794510040432215" lon="7.903690030798316">
        <ele>1552</ele>
        <time>2009-07-19T12:57:39Z</time>
      </trkpt>
      <trkpt lat="45.794439967721701" lon="7.903630016371608">
        <ele>1552.7</ele>
        <time>2009-07-19T12:57:32Z</time>
      </trkpt>
      <trkpt lat="45.794380037114024" lon="7.903649965301156">
        <ele>1552.7</ele>
        <time>2009-07-19T12:57:25Z</time>
      </trkpt>
      <trkpt lat="45.794339971616864" lon="7.903560027480125">
        <ele>1553.3</ele>
        <time>2009-07-19T12:57:18Z</time>
      </trkpt>
      <trkpt lat="45.794280041009188" lon="7.903500013053417">
        <ele>1554.2</ele>
        <time>2009-07-19T12:57:13Z</time>
      </trkpt>
      <trkpt lat="45.794130004942417" lon="7.903330028057098">
        <ele>1556.5999999999999</ele>
        <time>2009-07-19T12:56:59Z</time>
      </trkpt>
      <trkpt lat="45.793969994410872" lon="7.903279988095164">
        <ele>1559.0999999999999</ele>
        <time>2009-07-19T12:56:43Z</time>
      </trkpt>
      <trkpt lat="45.79387997277081" lon="7.903219973668456">
        <ele>1560.9000000000001</ele>
        <time>2009-07-19T12:56:31Z</time>
      </trkpt>
      <trkpt lat="45.793849965557456" lon="7.903179991990328">
        <ele>1560</ele>
        <time>2009-07-19T12:56:24Z</time>
      </trkpt>
      <trkpt lat="45.793760027736425" lon="7.903070021420717">
        <ele>1558.0999999999999</ele>
        <time>2009-07-19T12:56:12Z</time>
      </trkpt>
      <trkpt lat="45.793660031631589" lon="7.903040014207363">
        <ele>1559.0999999999999</ele>
        <time>2009-07-19T12:55:56Z</time>
      </trkpt>
      <trkpt lat="45.793560035526752" lon="7.902949992567301">
        <ele>1561.2</ele>
        <time>2009-07-19T12:55:42Z</time>
      </trkpt>
      <trkpt lat="45.793519970029593" lon="7.902900036424398">
        <ele>1563</ele>
        <time>2009-07-19T12:55:30Z</time>
      </trkpt>
      <trkpt lat="45.793479988351464" lon="7.902900036424398">
        <ele>1563</ele>
        <time>2009-07-19T12:55:25Z</time>
      </trkpt>
      <trkpt lat="45.793430032208562" lon="7.902880003675818">
        <ele>1564.5</ele>
        <time>2009-07-19T12:55:20Z</time>
      </trkpt>
      <trkpt lat="45.793359959498048" lon="7.902829963713884">
        <ele>1564.5</ele>
        <time>2009-07-19T12:55:14Z</time>
      </trkpt>
      <trkpt lat="45.793189974501729" lon="7.902789982035756">
        <ele>1567</ele>
        <time>2009-07-19T12:55:02Z</time>
      </trkpt>
      <trkpt lat="45.793140018358827" lon="7.902750000357628">
        <ele>1568.2</ele>
        <time>2009-07-19T12:54:55Z</time>
      </trkpt>
      <trkpt lat="45.79301998950541" lon="7.902780007570982">
        <ele>1568.2</ele>
        <time>2009-07-19T12:54:45Z</time>
      </trkpt>
      <trkpt lat="45.7929100189358" lon="7.902750000357628">
        <ele>1568.2</ele>
        <time>2009-07-19T12:54:34Z</time>
      </trkpt>
      <trkpt lat="45.792829971760511" lon="7.902750000357628">
        <ele>1566.7</ele>
        <time>2009-07-19T12:54:26Z</time>
      </trkpt>
      <trkpt lat="45.792819997295737" lon="7.902740025892854">
        <ele>1567</ele>
        <time>2009-07-19T12:54:24Z</time>
      </trkpt>
      <trkpt lat="45.792669961228967" lon="7.902650004252791">
        <ele>1567</ele>
        <time>2009-07-19T12:54:12Z</time>
      </trkpt>
      <trkpt lat="45.792620005086064" lon="7.902589989826083">
        <ele>1567</ele>
        <time>2009-07-19T12:54:05Z</time>
      </trkpt>
      <trkpt lat="45.792599972337484" lon="7.902580015361309">
        <ele>1566.7</ele>
        <time>2009-07-19T12:54:05Z</time>
      </trkpt>
      <trkpt lat="45.79256996512413" lon="7.902589989826083">
        <ele>1568.2</ele>
        <time>2009-07-19T12:54:01Z</time>
      </trkpt>
      <trkpt lat="45.792520008981228" lon="7.902550008147955">
        <ele>1567.5999999999999</ele>
        <time>2009-07-19T12:53:56Z</time>
      </trkpt>
      <trkpt lat="45.792490001767874" lon="7.902570040896535">
        <ele>1567.5999999999999</ele>
        <time>2009-07-19T12:53:54Z</time>
      </trkpt>
      <trkpt lat="45.792420012876391" lon="7.902529975399375">
        <ele>1568.2</ele>
        <time>2009-07-19T12:53:49Z</time>
      </trkpt>
      <trkpt lat="45.792399980127811" lon="7.902469960972667">
        <ele>1566.7</ele>
        <time>2009-07-19T12:53:44Z</time>
      </trkpt>
      <trkpt lat="45.792329991236329" lon="7.902429979294539">
        <ele>1567.5999999999999</ele>
        <time>2009-07-19T12:53:39Z</time>
      </trkpt>
      <trkpt lat="45.792309958487749" lon="7.90241003036499">
        <ele>1568.2</ele>
        <time>2009-07-19T12:53:37Z</time>
      </trkpt>
      <trkpt lat="45.792120024561882" lon="7.902320008724928">
        <ele>1568.8</ele>
        <time>2009-07-19T12:53:21Z</time>
      </trkpt>
      <trkpt lat="45.792039977386594" lon="7.902310034260154">
        <ele>1570</ele>
        <time>2009-07-19T12:53:14Z</time>
      </trkpt>
      <trkpt lat="45.791990021243691" lon="7.902299975976348">
        <ele>1570.5999999999999</ele>
        <time>2009-07-19T12:53:11Z</time>
      </trkpt>
      <trkpt lat="45.791920032352209" lon="7.902290001511574">
        <ele>1574.5999999999999</ele>
        <time>2009-07-19T12:53:06Z</time>
      </trkpt>
      <trkpt lat="45.791899999603629" lon="7.902310034260154">
        <ele>1574.9000000000001</ele>
        <time>2009-07-19T12:53:04Z</time>
      </trkpt>
      <trkpt lat="45.791860017925501" lon="7.902320008724928">
        <ele>1575.8</ele>
        <time>2009-07-19T12:53:00Z</time>
      </trkpt>
      <trkpt lat="45.791830010712147" lon="7.902299975976348">
        <ele>1577.3</ele>
        <time>2009-07-19T12:52:55Z</time>
      </trkpt>
      <trkpt lat="45.79173001460731" lon="7.902250019833446">
        <ele>1576.4000000000001</ele>
        <time>2009-07-19T12:52:43Z</time>
      </trkpt>
      <trkpt lat="45.791639992967248" lon="7.902150023728609">
        <ele>1574.3</ele>
        <time>2009-07-19T12:52:29Z</time>
      </trkpt>
      <trkpt lat="45.79160001128912" lon="7.902099983766675">
        <ele>1572.8</ele>
        <time>2009-07-19T12:52:24Z</time>
      </trkpt>
      <trkpt lat="45.791470007970929" lon="7.901909966021776">
        <ele>1570</ele>
        <time>2009-07-19T12:52:08Z</time>
      </trkpt>
      <trkpt lat="45.791330030187964" lon="7.901720032095909">
        <ele>1573.4000000000001</ele>
        <time>2009-07-19T12:51:54Z</time>
      </trkpt>
      <trkpt lat="45.791270015761256" lon="7.901690024882555">
        <ele>1573.7</ele>
        <time>2009-07-19T12:51:49Z</time>
      </trkpt>
      <trkpt lat="45.791130037978292" lon="7.901560021564364">
        <ele>1575.5</ele>
        <time>2009-07-19T12:51:33Z</time>
      </trkpt>
      <trkpt lat="45.791119979694486" lon="7.90153001435101">
        <ele>1575.5</ele>
        <time>2009-07-19T12:51:30Z</time>
      </trkpt>
      <trkpt lat="45.791070023551583" lon="7.901479974389076">
        <ele>1575.8</ele>
        <time>2009-07-19T12:51:26Z</time>
      </trkpt>
      <trkpt lat="45.791059965267777" lon="7.901460025459528">
        <ele>1576.4000000000001</ele>
        <time>2009-07-19T12:51:23Z</time>
      </trkpt>
      <trkpt lat="45.790989976376295" lon="7.90140001103282">
        <ele>1577</ele>
        <time>2009-07-19T12:51:16Z</time>
      </trkpt>
      <trkpt lat="45.790959969162941" lon="7.90137997828424">
        <ele>1577</ele>
        <time>2009-07-19T12:51:14Z</time>
      </trkpt>
      <trkpt lat="45.790819991379976" lon="7.901309989392757">
        <ele>1578.5999999999999</ele>
        <time>2009-07-19T12:51:00Z</time>
      </trkpt>
      <trkpt lat="45.790750002488494" lon="7.901149978861213">
        <ele>1579.5</ele>
        <time>2009-07-19T12:50:48Z</time>
      </trkpt>
      <trkpt lat="45.790569959208369" lon="7.90094998665154">
        <ele>1580.0999999999999</ele>
        <time>2009-07-19T12:50:34Z</time>
      </trkpt>
      <trkpt lat="45.790350018069148" lon="7.900789976119995">
        <ele>1580.7</ele>
        <time>2009-07-19T12:50:22Z</time>
      </trkpt>
      <trkpt lat="45.79026997089386" lon="7.900840016081929">
        <ele>1581.5999999999999</ele>
        <time>2009-07-19T12:50:13Z</time>
      </trkpt>
      <trkpt lat="45.790150025859475" lon="7.900870023295283">
        <ele>1583.7</ele>
        <time>2009-07-19T12:50:01Z</time>
      </trkpt>
      <trkpt lat="45.790020022541285" lon="7.900870023295283">
        <ele>1583.7</ele>
        <time>2009-07-19T12:49:49Z</time>
      </trkpt>
      <trkpt lat="45.78996998257935" lon="7.900840016081929">
        <ele>1583.7</ele>
        <time>2009-07-19T12:49:47Z</time>
      </trkpt>
      <trkpt lat="45.789899993687868" lon="7.900830041617155">
        <ele>1585.3</ele>
        <time>2009-07-19T12:49:38Z</time>
      </trkpt>
      <trkpt lat="45.789760015904903" lon="7.900749994441867">
        <ele>1585.9000000000001</ele>
        <time>2009-07-19T12:49:30Z</time>
      </trkpt>
      <trkpt lat="45.789700001478195" lon="7.900770027190447">
        <ele>1586.2</ele>
        <time>2009-07-19T12:49:23Z</time>
      </trkpt>
      <trkpt lat="45.789639987051487" lon="7.900879997760057">
        <ele>1587.4000000000001</ele>
        <time>2009-07-19T12:48:13Z</time>
      </trkpt>
      <trkpt lat="45.789530016481876" lon="7.900900030508637">
        <ele>1588</ele>
        <time>2009-07-19T12:48:01Z</time>
      </trkpt>
      <trkpt lat="45.789390038698912" lon="7.900979993864894">
        <ele>1588.3</ele>
        <time>2009-07-19T12:47:47Z</time>
      </trkpt>
      <trkpt lat="45.789370005950332" lon="7.901010001078248">
        <ele>1588.3</ele>
        <time>2009-07-19T12:47:43Z</time>
      </trkpt>
      <trkpt lat="45.789219969883561" lon="7.901030033826828">
        <ele>1590.8</ele>
        <time>2009-07-19T12:47:28Z</time>
      </trkpt>
      <trkpt lat="45.789140006527305" lon="7.901030033826828">
        <ele>1592</ele>
        <time>2009-07-19T12:47:19Z</time>
      </trkpt>
      <trkpt lat="45.789030035957694" lon="7.900989968329668">
        <ele>1593.8</ele>
        <time>2009-07-19T12:47:10Z</time>
      </trkpt>
      <trkpt lat="45.788870025426149" lon="7.900930037721992">
        <ele>1595.5999999999999</ele>
        <time>2009-07-19T12:46:56Z</time>
      </trkpt>
      <trkpt lat="45.788859967142344" lon="7.900900030508637">
        <ele>1596.2</ele>
        <time>2009-07-19T12:46:53Z</time>
      </trkpt>
      <trkpt lat="45.788710014894605" lon="7.900780001655221">
        <ele>1597.8</ele>
        <time>2009-07-19T12:46:42Z</time>
      </trkpt>
      <trkpt lat="45.788659974932671" lon="7.900719987228513">
        <ele>1598.4000000000001</ele>
        <time>2009-07-19T12:46:34Z</time>
      </trkpt>
      <trkpt lat="45.788540029898286" lon="7.900659972801805">
        <ele>1599.3</ele>
        <time>2009-07-19T12:46:25Z</time>
      </trkpt>
      <trkpt lat="45.788470041006804" lon="7.900689980015159">
        <ele>1599.3</ele>
        <time>2009-07-19T12:46:21Z</time>
      </trkpt>
      <trkpt lat="45.788359986618161" lon="7.900640023872256">
        <ele>1599.9000000000001</ele>
        <time>2009-07-19T12:46:11Z</time>
      </trkpt>
      <trkpt lat="45.788180027157068" lon="7.900580009445548">
        <ele>1599.9000000000001</ele>
        <time>2009-07-19T12:45:57Z</time>
      </trkpt>
      <trkpt lat="45.78812001273036" lon="7.900529969483614">
        <ele>1602.3</ele>
        <time>2009-07-19T12:45:48Z</time>
      </trkpt>
      <trkpt lat="45.788029991090298" lon="7.90051999501884">
        <ele>1602.3</ele>
        <time>2009-07-19T12:45:36Z</time>
      </trkpt>
      <trkpt lat="45.787969976663589" lon="7.900369958952069">
        <ele>1604.2</ele>
        <time>2009-07-19T12:45:24Z</time>
      </trkpt>
      <trkpt lat="45.787939969450235" lon="7.900320002809167">
        <ele>1604.5</ele>
        <time>2009-07-19T12:45:19Z</time>
      </trkpt>
      <trkpt lat="45.787890013307333" lon="7.900289995595813">
        <ele>1605.0999999999999</ele>
        <time>2009-07-19T12:45:13Z</time>
      </trkpt>
      <trkpt lat="45.787860006093979" lon="7.900289995595813">
        <ele>1605.7</ele>
        <time>2009-07-19T12:45:12Z</time>
      </trkpt>
      <trkpt lat="45.787799991667271" lon="7.900250013917685">
        <ele>1606.3</ele>
        <time>2009-07-19T12:45:08Z</time>
      </trkpt>
      <trkpt lat="45.787730002775788" lon="7.900150017812848">
        <ele>1607.2</ele>
        <time>2009-07-19T12:45:01Z</time>
      </trkpt>
      <trkpt lat="45.787660013884306" lon="7.900129985064268">
        <ele>1608.0999999999999</ele>
        <time>2009-07-19T12:44:56Z</time>
      </trkpt>
      <trkpt lat="45.787599999457598" lon="7.900050021708012">
        <ele>1608.0999999999999</ele>
        <time>2009-07-19T12:44:49Z</time>
      </trkpt>
      <trkpt lat="45.787490028887987" lon="7.900010040029883">
        <ele>1610.3</ele>
        <time>2009-07-19T12:44:37Z</time>
      </trkpt>
      <trkpt lat="45.787449963390827" lon="7.900010040029883">
        <ele>1610.9000000000001</ele>
        <time>2009-07-19T12:44:33Z</time>
      </trkpt>
      <trkpt lat="45.787409981712699" lon="7.899969974532723">
        <ele>1611.2</ele>
        <time>2009-07-19T12:44:30Z</time>
      </trkpt>
      <trkpt lat="45.787390032783151" lon="7.900080028921366">
        <ele>1611.8</ele>
        <time>2009-07-19T12:44:26Z</time>
      </trkpt>
      <trkpt lat="45.787319960072637" lon="7.900199973955751">
        <ele>1612.7</ele>
        <time>2009-07-19T12:44:18Z</time>
      </trkpt>
      <trkpt lat="45.78726002946496" lon="7.90022000670433">
        <ele>1613.9000000000001</ele>
        <time>2009-07-19T12:44:11Z</time>
      </trkpt>
      <trkpt lat="45.787230022251606" lon="7.900229981169105">
        <ele>1615.4000000000001</ele>
        <time>2009-07-19T12:44:07Z</time>
      </trkpt>
      <trkpt lat="45.787149975076318" lon="7.900299970060587">
        <ele>1616.7</ele>
        <time>2009-07-19T12:44:00Z</time>
      </trkpt>
      <trkpt lat="45.787140000611544" lon="7.900299970060587">
        <ele>1617.5999999999999</ele>
        <time>2009-07-19T12:44:00Z</time>
      </trkpt>
      <trkpt lat="45.787040004506707" lon="7.900359984487295">
        <ele>1618.2</ele>
        <time>2009-07-19T12:43:48Z</time>
      </trkpt>
      <trkpt lat="45.786879993975163" lon="7.900369958952069">
        <ele>1617.5999999999999</ele>
        <time>2009-07-19T12:43:34Z</time>
      </trkpt>
      <trkpt lat="45.786759965121746" lon="7.900440031662583">
        <ele>1619.7</ele>
        <time>2009-07-19T12:43:20Z</time>
      </trkpt>
      <trkpt lat="45.786710008978844" lon="7.900429973378778">
        <ele>1619.7</ele>
        <time>2009-07-19T12:43:17Z</time>
      </trkpt>
      <trkpt lat="45.786670027300715" lon="7.900459980592132">
        <ele>1619.7</ele>
        <time>2009-07-19T12:43:13Z</time>
      </trkpt>
      <trkpt lat="45.786629961803555" lon="7.90051999501884">
        <ele>1620.5999999999999</ele>
        <time>2009-07-19T12:43:08Z</time>
      </trkpt>
      <trkpt lat="45.786570031195879" lon="7.900580009445548">
        <ele>1623.7</ele>
        <time>2009-07-19T12:43:01Z</time>
      </trkpt>
      <trkpt lat="45.786519991233945" lon="7.90062996558845">
        <ele>1624.3</ele>
        <time>2009-07-19T12:42:52Z</time>
      </trkpt>
      <trkpt lat="45.78638001345098" lon="7.900610016658902">
        <ele>1624.3</ele>
        <time>2009-07-19T12:42:38Z</time>
      </trkpt>
      <trkpt lat="45.78638001345098" lon="7.90064999833703">
        <ele>1627</ele>
        <time>2009-07-19T12:42:35Z</time>
      </trkpt>
      <trkpt lat="45.786319999024272" lon="7.900619991123676">
        <ele>1627.9000000000001</ele>
        <time>2009-07-19T12:42:30Z</time>
      </trkpt>
      <trkpt lat="45.786240035668015" lon="7.900619991123676">
        <ele>1627</ele>
        <time>2009-07-19T12:42:18Z</time>
      </trkpt>
      <trkpt lat="45.786210028454661" lon="7.900859965011478">
        <ele>1624.3</ele>
        <time>2009-07-19T12:42:05Z</time>
      </trkpt>
      <trkpt lat="45.786159988492727" lon="7.900900030508637">
        <ele>1625.8</ele>
        <time>2009-07-19T12:42:00Z</time>
      </trkpt>
      <trkpt lat="45.786039959639311" lon="7.900910004973412">
        <ele>1628.2</ele>
        <time>2009-07-19T12:41:48Z</time>
      </trkpt>
      <trkpt lat="45.785969970747828" lon="7.900930037721992">
        <ele>1630.7</ele>
        <time>2009-07-19T12:41:41Z</time>
      </trkpt>
      <trkpt lat="45.785890007391572" lon="7.90097001940012">
        <ele>1632.5</ele>
        <time>2009-07-19T12:41:32Z</time>
      </trkpt>
      <trkpt lat="45.785780036821961" lon="7.901019975543022">
        <ele>1635.3</ele>
        <time>2009-07-19T12:41:18Z</time>
      </trkpt>
      <trkpt lat="45.785760004073381" lon="7.901030033826828">
        <ele>1637.4000000000001</ele>
        <time>2009-07-19T12:41:13Z</time>
      </trkpt>
      <trkpt lat="45.785669982433319" lon="7.90107998996973">
        <ele>1637.7</ele>
        <time>2009-07-19T12:41:04Z</time>
      </trkpt>
      <trkpt lat="45.785560011863708" lon="7.901119971647859">
        <ele>1640.4000000000001</ele>
        <time>2009-07-19T12:40:50Z</time>
      </trkpt>
      <trkpt lat="45.785490022972226" lon="7.901160037145019">
        <ele>1641.7</ele>
        <time>2009-07-19T12:40:42Z</time>
      </trkpt>
      <trkpt lat="45.785360019654036" lon="7.901130029931665">
        <ele>1644.4000000000001</ele>
        <time>2009-07-19T12:40:24Z</time>
      </trkpt>
      <trkpt lat="45.785290030762553" lon="7.901140004396439">
        <ele>1647.4000000000001</ele>
        <time>2009-07-19T12:40:14Z</time>
      </trkpt>
      <trkpt lat="45.785209983587265" lon="7.901249974966049">
        <ele>1650.8</ele>
        <time>2009-07-19T12:40:00Z</time>
      </trkpt>
      <trkpt lat="45.785130020231009" lon="7.901290040463209">
        <ele>1652.9000000000001</ele>
        <time>2009-07-19T12:39:46Z</time>
      </trkpt>
      <trkpt lat="45.785100013017654" lon="7.901309989392757">
        <ele>1656</ele>
        <time>2009-07-19T12:39:39Z</time>
      </trkpt>
      <trkpt lat="45.78504997305572" lon="7.901349971070886">
        <ele>1657.2</ele>
        <time>2009-07-19T12:39:30Z</time>
      </trkpt>
      <trkpt lat="45.78491996973753" lon="7.901370003819466">
        <ele>1658.0999999999999</ele>
        <time>2009-07-19T12:39:18Z</time>
      </trkpt>
      <trkpt lat="45.784809999167919" lon="7.901349971070886">
        <ele>1661.2</ele>
        <time>2009-07-19T12:39:02Z</time>
      </trkpt>
      <trkpt lat="45.784730035811663" lon="7.90137997828424">
        <ele>1663.9000000000001</ele>
        <time>2009-07-19T12:38:50Z</time>
      </trkpt>
      <trkpt lat="45.78461998142302" lon="7.901330022141337">
        <ele>1664.5</ele>
        <time>2009-07-19T12:38:43Z</time>
      </trkpt>
      <trkpt lat="45.784600032493472" lon="7.901339996606112">
        <ele>1665.7</ele>
        <time>2009-07-19T12:38:40Z</time>
      </trkpt>
      <trkpt lat="45.784549992531538" lon="7.901360029354692">
        <ele>1669.4000000000001</ele>
        <time>2009-07-19T12:38:28Z</time>
      </trkpt>
      <trkpt lat="45.784410014748573" lon="7.901360029354692">
        <ele>1672.0999999999999</ele>
        <time>2009-07-19T12:38:12Z</time>
      </trkpt>
      <trkpt lat="45.784400040283799" lon="7.901360029354692">
        <ele>1672.0999999999999</ele>
        <time>2009-07-19T12:38:12Z</time>
      </trkpt>
      <trkpt lat="45.784329967573285" lon="7.901370003819466">
        <ele>1675.2</ele>
        <time>2009-07-19T12:38:00Z</time>
      </trkpt>
      <trkpt lat="45.784259978681803" lon="7.901370003819466">
        <ele>1677.3</ele>
        <time>2009-07-19T12:37:51Z</time>
      </trkpt>
      <trkpt lat="45.784240029752254" lon="7.901370003819466">
        <ele>1678.2</ele>
        <time>2009-07-19T12:37:49Z</time>
      </trkpt>
      <trkpt lat="45.784140033647418" lon="7.901349971070886">
        <ele>1681.5999999999999</ele>
        <time>2009-07-19T12:37:37Z</time>
      </trkpt>
      <trkpt lat="45.784129975363612" lon="7.901339996606112">
        <ele>1682.5</ele>
        <time>2009-07-19T12:37:35Z</time>
      </trkpt>
      <trkpt lat="45.784050012007356" lon="7.901349971070886">
        <ele>1686.2</ele>
        <time>2009-07-19T12:37:23Z</time>
      </trkpt>
      <trkpt lat="45.783940041437745" lon="7.901360029354692">
        <ele>1688.5999999999999</ele>
        <time>2009-07-19T12:37:11Z</time>
      </trkpt>
      <trkpt lat="45.783850019797683" lon="7.901370003819466">
        <ele>1691.5999999999999</ele>
        <time>2009-07-19T12:36:55Z</time>
      </trkpt>
      <trkpt lat="45.783820012584329" lon="7.90140001103282">
        <ele>1693.5</ele>
        <time>2009-07-19T12:36:52Z</time>
      </trkpt>
      <trkpt lat="45.78375999815762" lon="7.901430018246174">
        <ele>1694.4000000000001</ele>
        <time>2009-07-19T12:36:43Z</time>
      </trkpt>
      <trkpt lat="45.783690009266138" lon="7.901469999924302">
        <ele>1696.2</ele>
        <time>2009-07-19T12:36:31Z</time>
      </trkpt>
      <trkpt lat="45.783599987626076" lon="7.90150998160243">
        <ele>1699.9000000000001</ele>
        <time>2009-07-19T12:36:17Z</time>
      </trkpt>
      <trkpt lat="45.783509965986013" lon="7.90153001435101">
        <ele>1701.7</ele>
        <time>2009-07-19T12:36:08Z</time>
      </trkpt>
      <trkpt lat="45.783450035378337" lon="7.901549963280559">
        <ele>1705.0999999999999</ele>
        <time>2009-07-19T12:36:00Z</time>
      </trkpt>
      <trkpt lat="45.783360013738275" lon="7.901590028777719">
        <ele>1707.5</ele>
        <time>2009-07-19T12:35:47Z</time>
      </trkpt>
      <trkpt lat="45.783290024846792" lon="7.901630010455847">
        <ele>1710.5</ele>
        <time>2009-07-19T12:35:37Z</time>
      </trkpt>
      <trkpt lat="45.78322003595531" lon="7.901609977707267">
        <ele>1712.4000000000001</ele>
        <time>2009-07-19T12:35:30Z</time>
      </trkpt>
      <trkpt lat="45.783209977671504" lon="7.901609977707267">
        <ele>1712.4000000000001</ele>
        <time>2009-07-19T12:35:30Z</time>
      </trkpt>
      <trkpt lat="45.783130014315248" lon="7.901669992133975">
        <ele>1715.4000000000001</ele>
        <time>2009-07-19T12:35:18Z</time>
      </trkpt>
      <trkpt lat="45.783060025423765" lon="7.901709973812103">
        <ele>1719.0999999999999</ele>
        <time>2009-07-19T12:35:07Z</time>
      </trkpt>
      <trkpt lat="45.783000010997057" lon="7.901750039309263">
        <ele>1720.5999999999999</ele>
        <time>2009-07-19T12:34:55Z</time>
      </trkpt>
      <trkpt lat="45.782930022105575" lon="7.901750039309263">
        <ele>1722.0999999999999</ele>
        <time>2009-07-19T12:34:43Z</time>
      </trkpt>
      <trkpt lat="45.782870007678866" lon="7.901690024882555">
        <ele>1722.0999999999999</ele>
        <time>2009-07-19T12:34:34Z</time>
      </trkpt>
      <trkpt lat="45.782819967716932" lon="7.901560021564364">
        <ele>1722.0999999999999</ele>
        <time>2009-07-19T12:34:20Z</time>
      </trkpt>
      <trkpt lat="45.782819967716932" lon="7.90150998160243">
        <ele>1721.5</ele>
        <time>2009-07-19T12:34:17Z</time>
      </trkpt>
      <trkpt lat="45.782800018787384" lon="7.901290040463209">
        <ele>1721.5</ele>
        <time>2009-07-19T12:34:01Z</time>
      </trkpt>
      <trkpt lat="45.782789960503578" lon="7.901230026036501">
        <ele>1721.5</ele>
        <time>2009-07-19T12:33:58Z</time>
      </trkpt>
      <trkpt lat="45.782760037109256" lon="7.901130029931665">
        <ele>1721.2</ele>
        <time>2009-07-19T12:33:52Z</time>
      </trkpt>
      <trkpt lat="45.782689964398742" lon="7.901000026613474">
        <ele>1721.5</ele>
        <time>2009-07-19T12:33:42Z</time>
      </trkpt>
      <trkpt lat="45.782689964398742" lon="7.900879997760057">
        <ele>1722.4000000000001</ele>
        <time>2009-07-19T12:33:35Z</time>
      </trkpt>
      <trkpt lat="45.782660041004419" lon="7.900840016081929">
        <ele>1724.9000000000001</ele>
        <time>2009-07-19T12:33:30Z</time>
      </trkpt>
      <trkpt lat="45.782610001042485" lon="7.900800034403801">
        <ele>1725.2</ele>
        <time>2009-07-19T12:33:23Z</time>
      </trkpt>
      <trkpt lat="45.782510004937649" lon="7.900740019977093">
        <ele>1725.8</ele>
        <time>2009-07-19T12:33:07Z</time>
      </trkpt>
      <trkpt lat="45.782459964975715" lon="7.900749994441867">
        <ele>1725.2</ele>
        <time>2009-07-19T12:32:48Z</time>
      </trkpt>
      <trkpt lat="45.782359968870878" lon="7.900740019977093">
        <ele>1726.7</ele>
        <time>2009-07-19T12:32:27Z</time>
      </trkpt>
      <trkpt lat="45.782310012727976" lon="7.900719987228513">
        <ele>1727.9000000000001</ele>
        <time>2009-07-19T12:32:01Z</time>
      </trkpt>
      <trkpt lat="45.782289979979396" lon="7.900719987228513">
        <ele>1727</ele>
        <time>2009-07-19T12:31:42Z</time>
      </trkpt>
      <trkpt lat="45.782050006091595" lon="7.900610016658902">
        <ele>1731.5999999999999</ele>
        <time>2009-07-19T12:31:24Z</time>
      </trkpt>
      <trkpt lat="45.782040031626821" lon="7.900610016658902">
        <ele>1731</ele>
        <time>2009-07-19T12:31:24Z</time>
      </trkpt>
      <trkpt lat="45.782010024413466" lon="7.900599958375096">
        <ele>1732.8</ele>
        <time>2009-07-19T12:31:19Z</time>
      </trkpt>
      <trkpt lat="45.781969958916306" lon="7.900640023872256">
        <ele>1734</ele>
        <time>2009-07-19T12:31:12Z</time>
      </trkpt>
      <trkpt lat="45.78188999556005" lon="7.900619991123676">
        <ele>1734.5999999999999</ele>
        <time>2009-07-19T12:31:00Z</time>
      </trkpt>
      <trkpt lat="45.781820006668568" lon="7.900589983910322">
        <ele>1734.5999999999999</ele>
        <time>2009-07-19T12:30:53Z</time>
      </trkpt>
      <trkpt lat="45.781699977815151" lon="7.900749994441867">
        <ele>1734.9000000000001</ele>
        <time>2009-07-19T12:30:41Z</time>
      </trkpt>
      <trkpt lat="45.781659996137023" lon="7.900759968906641">
        <ele>1736.8</ele>
        <time>2009-07-19T12:30:37Z</time>
      </trkpt>
      <trkpt lat="45.781629988923669" lon="7.900819983333349">
        <ele>1737.7</ele>
        <time>2009-07-19T12:30:32Z</time>
      </trkpt>
      <trkpt lat="45.781539967283607" lon="7.900879997760057">
        <ele>1734.9000000000001</ele>
        <time>2009-07-19T12:30:18Z</time>
      </trkpt>
      <trkpt lat="45.781450029462576" lon="7.900879997760057">
        <ele>1735.5</ele>
        <time>2009-07-19T12:29:43Z</time>
      </trkpt>
      <trkpt lat="45.781350033357739" lon="7.900810008868575">
        <ele>1737.4000000000001</ele>
        <time>2009-07-19T12:29:31Z</time>
      </trkpt>
      <trkpt lat="45.781169990077615" lon="7.900759968906641">
        <ele>1736.8</ele>
        <time>2009-07-19T12:29:17Z</time>
      </trkpt>
      <trkpt lat="45.781049961224198" lon="7.900800034403801">
        <ele>1739.2</ele>
        <time>2009-07-19T12:29:05Z</time>
      </trkpt>
      <trkpt lat="45.781020037829876" lon="7.900810008868575">
        <ele>1739.2</ele>
        <time>2009-07-19T12:29:03Z</time>
      </trkpt>
      <trkpt lat="45.78100997954607" lon="7.900830041617155">
        <ele>1739.8</ele>
        <time>2009-07-19T12:29:00Z</time>
      </trkpt>
      <trkpt lat="45.780890034511685" lon="7.900919979438186">
        <ele>1739.8</ele>
        <time>2009-07-19T12:28:46Z</time>
      </trkpt>
      <trkpt lat="45.780839994549751" lon="7.90094998665154">
        <ele>1740.4000000000001</ele>
        <time>2009-07-19T12:28:39Z</time>
      </trkpt>
      <trkpt lat="45.780719965696335" lon="7.901010001078248">
        <ele>1740.7</ele>
        <time>2009-07-19T12:28:25Z</time>
      </trkpt>
      <trkpt lat="45.780560038983822" lon="7.900979993864894">
        <ele>1741.5999999999999</ele>
        <time>2009-07-19T12:28:11Z</time>
      </trkpt>
      <trkpt lat="45.780459959059954" lon="7.901030033826828">
        <ele>1741.5999999999999</ele>
        <time>2009-07-19T12:27:59Z</time>
      </trkpt>
      <trkpt lat="45.78044998459518" lon="7.901040008291602">
        <ele>1742.2</ele>
        <time>2009-07-19T12:27:59Z</time>
      </trkpt>
      <trkpt lat="45.780330039560795" lon="7.901030033826828">
        <ele>1743.2</ele>
        <time>2009-07-19T12:27:47Z</time>
      </trkpt>
      <trkpt lat="45.780200036242604" lon="7.901000026613474">
        <ele>1744.0999999999999</ele>
        <time>2009-07-19T12:27:34Z</time>
      </trkpt>
      <trkpt lat="45.780100040137768" lon="7.900940012186766">
        <ele>1745</ele>
        <time>2009-07-19T12:27:22Z</time>
      </trkpt>
      <trkpt lat="45.779950004070997" lon="7.900870023295283">
        <ele>1746.5</ele>
        <time>2009-07-19T12:27:08Z</time>
      </trkpt>
      <trkpt lat="45.779759986326098" lon="7.900789976119995">
        <ele>1746.5</ele>
        <time>2009-07-19T12:26:54Z</time>
      </trkpt>
      <trkpt lat="45.779550019651651" lon="7.900689980015159">
        <ele>1747.4000000000001</ele>
        <time>2009-07-19T12:26:28Z</time>
      </trkpt>
      <trkpt lat="45.779439965263009" lon="7.900640023872256">
        <ele>1747.0999999999999</ele>
        <time>2009-07-19T12:26:16Z</time>
      </trkpt>
      <trkpt lat="45.779350027441978" lon="7.900619991123676">
        <ele>1748.9000000000001</ele>
        <time>2009-07-19T12:26:07Z</time>
      </trkpt>
      <trkpt lat="45.779199991375208" lon="7.900599958375096">
        <ele>1749.9000000000001</ele>
        <time>2009-07-19T12:25:55Z</time>
      </trkpt>
      <trkpt lat="45.779039980843663" lon="7.900580009445548">
        <ele>1750.2</ele>
        <time>2009-07-19T12:25:41Z</time>
      </trkpt>
      <trkpt lat="45.778779974207282" lon="7.900659972801805">
        <ele>1756.5999999999999</ele>
        <time>2009-07-19T12:20:55Z</time>
      </trkpt>
      <trkpt lat="45.778649970889091" lon="7.900689980015159">
        <ele>1758.4000000000001</ele>
        <time>2009-07-19T12:19:32Z</time>
      </trkpt>
      <trkpt lat="45.778630021959543" lon="7.900659972801805">
        <ele>1757.8</ele>
        <time>2009-07-19T12:19:14Z</time>
      </trkpt>
      <trkpt lat="45.778240012004972" lon="7.900830041617155">
        <ele>1767.2</ele>
        <time>2009-07-19T12:17:25Z</time>
      </trkpt>
      <trkpt lat="45.778149990364909" lon="7.900859965011478">
        <ele>1770.3</ele>
        <time>2009-07-19T12:17:11Z</time>
      </trkpt>
      <trkpt lat="45.778080001473427" lon="7.900819983333349">
        <ele>1770.3</ele>
        <time>2009-07-19T12:16:59Z</time>
      </trkpt>
      <trkpt lat="45.777919990941882" lon="7.900800034403801">
        <ele>1769.4000000000001</ele>
        <time>2009-07-19T12:16:39Z</time>
      </trkpt>
      <trkpt lat="45.777859976515174" lon="7.900729961693287">
        <ele>1767.8</ele>
        <time>2009-07-19T12:16:27Z</time>
      </trkpt>
      <trkpt lat="45.777740031480789" lon="7.900719987228513">
        <ele>1770.3</ele>
        <time>2009-07-19T12:16:10Z</time>
      </trkpt>
      <trkpt lat="45.777669958770275" lon="7.900770027190447">
        <ele>1771.5</ele>
        <time>2009-07-19T12:15:58Z</time>
      </trkpt>
      <trkpt lat="45.777429984882474" lon="7.900800034403801">
        <ele>1777.3</ele>
        <time>2009-07-19T12:14:51Z</time>
      </trkpt>
      <trkpt lat="45.777339963242412" lon="7.900759968906641">
        <ele>1777.9000000000001</ele>
        <time>2009-07-19T12:14:39Z</time>
      </trkpt>
      <trkpt lat="45.777209959924221" lon="7.900800034403801">
        <ele>1781.5999999999999</ele>
        <time>2009-07-19T12:14:25Z</time>
      </trkpt>
      <trkpt lat="45.777050033211708" lon="7.900810008868575">
        <ele>1781.9000000000001</ele>
        <time>2009-07-19T12:14:13Z</time>
      </trkpt>
      <trkpt lat="45.776930004358292" lon="7.900830041617155">
        <ele>1782.5</ele>
        <time>2009-07-19T12:14:01Z</time>
      </trkpt>
      <trkpt lat="45.776850041002035" lon="7.900849990546703">
        <ele>1782.8</ele>
        <time>2009-07-19T12:13:50Z</time>
      </trkpt>
      <trkpt lat="45.776749961078167" lon="7.900870023295283">
        <ele>1784</ele>
        <time>2009-07-19T12:13:38Z</time>
      </trkpt>
      <trkpt lat="45.776600008830428" lon="7.900900030508637">
        <ele>1784.3</ele>
        <time>2009-07-19T12:13:26Z</time>
      </trkpt>
      <trkpt lat="45.776579976081848" lon="7.900889972224832">
        <ele>1784.9000000000001</ele>
        <time>2009-07-19T12:13:24Z</time>
      </trkpt>
      <trkpt lat="45.776490038260818" lon="7.900900030508637">
        <ele>1784.9000000000001</ele>
        <time>2009-07-19T12:13:14Z</time>
      </trkpt>
      <trkpt lat="45.776349976658821" lon="7.900900030508637">
        <ele>1785.5</ele>
        <time>2009-07-19T12:13:00Z</time>
      </trkpt>
      <trkpt lat="45.77626003883779" lon="7.90094998665154">
        <ele>1785.5</ele>
        <time>2009-07-19T12:12:48Z</time>
      </trkpt>
      <trkpt lat="45.776200024411082" lon="7.90094998665154">
        <ele>1786.0999999999999</ele>
        <time>2009-07-19T12:12:27Z</time>
      </trkpt>
      <trkpt lat="45.776070021092892" lon="7.90097001940012">
        <ele>1784.9000000000001</ele>
        <time>2009-07-19T12:12:13Z</time>
      </trkpt>
      <trkpt lat="45.775989973917603" lon="7.900940012186766">
        <ele>1786.4000000000001</ele>
        <time>2009-07-19T12:12:02Z</time>
      </trkpt>
      <trkpt lat="45.775870028883219" lon="7.90094998665154">
        <ele>1789.2</ele>
        <time>2009-07-19T12:11:50Z</time>
      </trkpt>
      <trkpt lat="45.775759974494576" lon="7.900889972224832">
        <ele>1790.0999999999999</ele>
        <time>2009-07-19T12:11:38Z</time>
      </trkpt>
      <trkpt lat="45.775619996711612" lon="7.900870023295283">
        <ele>1791.5999999999999</ele>
        <time>2009-07-19T12:11:24Z</time>
      </trkpt>
      <trkpt lat="45.775520000606775" lon="7.900849990546703">
        <ele>1792.2</ele>
        <time>2009-07-19T12:11:15Z</time>
      </trkpt>
      <trkpt lat="45.775420004501939" lon="7.900800034403801">
        <ele>1794.4000000000001</ele>
        <time>2009-07-19T12:11:05Z</time>
      </trkpt>
      <trkpt lat="45.775359990075231" lon="7.900780001655221">
        <ele>1794.4000000000001</ele>
        <time>2009-07-19T12:10:56Z</time>
      </trkpt>
      <trkpt lat="45.775280026718974" lon="7.900719987228513">
        <ele>1795.3</ele>
        <time>2009-07-19T12:10:44Z</time>
      </trkpt>
      <trkpt lat="45.775139965116978" lon="7.900640023872256">
        <ele>1795.9000000000001</ele>
        <time>2009-07-19T12:10:07Z</time>
      </trkpt>
      <trkpt lat="45.775090008974075" lon="7.90064999833703">
        <ele>1795.9000000000001</ele>
        <time>2009-07-19T12:10:02Z</time>
      </trkpt>
      <trkpt lat="45.775060001760721" lon="7.90064999833703">
        <ele>1797.4000000000001</ele>
        <time>2009-07-19T12:09:59Z</time>
      </trkpt>
      <trkpt lat="45.774969980120659" lon="7.900640023872256">
        <ele>1797.4000000000001</ele>
        <time>2009-07-19T12:09:48Z</time>
      </trkpt>
      <trkpt lat="45.774929998442531" lon="7.900680005550385">
        <ele>1798</ele>
        <time>2009-07-19T12:09:43Z</time>
      </trkpt>
      <trkpt lat="45.774839976802468" lon="7.900680005550385">
        <ele>1798.5999999999999</ele>
        <time>2009-07-19T12:09:33Z</time>
      </trkpt>
      <trkpt lat="45.774720031768084" lon="7.90067003108561">
        <ele>1798.5999999999999</ele>
        <time>2009-07-19T12:09:22Z</time>
      </trkpt>
      <trkpt lat="45.774639984592795" lon="7.90067003108561">
        <ele>1799.5</ele>
        <time>2009-07-19T12:09:12Z</time>
      </trkpt>
      <trkpt lat="45.774569995701313" lon="7.900659972801805">
        <ele>1801.0999999999999</ele>
        <time>2009-07-19T12:09:05Z</time>
      </trkpt>
      <trkpt lat="45.774479974061251" lon="7.90067003108561">
        <ele>1803.2</ele>
        <time>2009-07-19T12:08:53Z</time>
      </trkpt>
      <trkpt lat="45.77439003624022" lon="7.90062996558845">
        <ele>1803.8</ele>
        <time>2009-07-19T12:08:42Z</time>
      </trkpt>
      <trkpt lat="45.774309989064932" lon="7.90067003108561">
        <ele>1807.5</ele>
        <time>2009-07-19T12:08:26Z</time>
      </trkpt>
      <trkpt lat="45.774300014600158" lon="7.900659972801805">
        <ele>1807.5</ele>
        <time>2009-07-19T12:08:26Z</time>
      </trkpt>
      <trkpt lat="45.774209992960095" lon="7.900680005550385">
        <ele>1809.3</ele>
        <time>2009-07-19T12:08:16Z</time>
      </trkpt>
      <trkpt lat="45.774200018495321" lon="7.900680005550385">
        <ele>1809.3</ele>
        <time>2009-07-19T12:08:14Z</time>
      </trkpt>
      <trkpt lat="45.774140004068613" lon="7.900780001655221">
        <ele>1811.0999999999999</ele>
        <time>2009-07-19T12:08:00Z</time>
      </trkpt>
      <trkpt lat="45.774030033499002" lon="7.900749994441867">
        <ele>1811.0999999999999</ele>
        <time>2009-07-19T12:07:48Z</time>
      </trkpt>
      <trkpt lat="45.773930037394166" lon="7.900719987228513">
        <ele>1811.0999999999999</ele>
        <time>2009-07-19T12:07:38Z</time>
      </trkpt>
      <trkpt lat="45.77383004128933" lon="7.90067003108561">
        <ele>1810.5</ele>
        <time>2009-07-19T12:07:24Z</time>
      </trkpt>
      <trkpt lat="45.77378997579217" lon="7.900619991123676">
        <ele>1809.9000000000001</ele>
        <time>2009-07-19T12:07:20Z</time>
      </trkpt>
      <trkpt lat="45.773640023544431" lon="7.900589983910322">
        <ele>1812.3</ele>
        <time>2009-07-19T12:07:08Z</time>
      </trkpt>
      <trkpt lat="45.773610016331077" lon="7.900570034980774">
        <ele>1812.3</ele>
        <time>2009-07-19T12:07:06Z</time>
      </trkpt>
      <trkpt lat="45.773600041866302" lon="7.90054002776742">
        <ele>1814.2</ele>
        <time>2009-07-19T12:07:03Z</time>
      </trkpt>
      <trkpt lat="45.773589983582497" lon="7.90051999501884">
        <ele>1814.8</ele>
        <time>2009-07-19T12:07:01Z</time>
      </trkpt>
      <trkpt lat="45.773529969155788" lon="7.900529969483614">
        <ele>1816.3</ele>
        <time>2009-07-19T12:06:54Z</time>
      </trkpt>
      <trkpt lat="45.773480013012886" lon="7.900589983910322">
        <ele>1818.0999999999999</ele>
        <time>2009-07-19T12:06:47Z</time>
      </trkpt>
      <trkpt lat="45.773410024121404" lon="7.90062996558845">
        <ele>1820.9000000000001</ele>
        <time>2009-07-19T12:06:38Z</time>
      </trkpt>
      <trkpt lat="45.773340035229921" lon="7.900610016658902">
        <ele>1823</ele>
        <time>2009-07-19T12:06:30Z</time>
      </trkpt>
      <trkpt lat="45.773320002481341" lon="7.900740019977093">
        <ele>1826.0999999999999</ele>
        <time>2009-07-19T12:06:21Z</time>
      </trkpt>
      <trkpt lat="45.773310028016567" lon="7.900789976119995">
        <ele>1827.5999999999999</ele>
        <time>2009-07-19T12:06:16Z</time>
      </trkpt>
      <trkpt lat="45.773180024698377" lon="7.900919979438186">
        <ele>1829.7</ele>
        <time>2009-07-19T12:06:00Z</time>
      </trkpt>
      <trkpt lat="45.773110035806894" lon="7.900940012186766">
        <ele>1831.5</ele>
        <time>2009-07-19T12:05:53Z</time>
      </trkpt>
      <trkpt lat="45.773069970309734" lon="7.901019975543022">
        <ele>1834.3</ele>
        <time>2009-07-19T12:05:44Z</time>
      </trkpt>
      <trkpt lat="45.773069970309734" lon="7.90110002271831">
        <ele>1836.0999999999999</ele>
        <time>2009-07-19T12:05:39Z</time>
      </trkpt>
      <trkpt lat="45.773050021380186" lon="7.901119971647859">
        <ele>1836.4000000000001</ele>
        <time>2009-07-19T12:05:36Z</time>
      </trkpt>
      <trkpt lat="45.772999981418252" lon="7.901230026036501">
        <ele>1836.4000000000001</ele>
        <time>2009-07-19T12:05:29Z</time>
      </trkpt>
      <trkpt lat="45.772920018061996" lon="7.901209993287921">
        <ele>1837</ele>
        <time>2009-07-19T12:05:20Z</time>
      </trkpt>
      <trkpt lat="45.772899985313416" lon="7.901189960539341">
        <ele>1839.2</ele>
        <time>2009-07-19T12:05:18Z</time>
      </trkpt>
      <trkpt lat="45.772839970886707" lon="7.901339996606112">
        <ele>1841.5999999999999</ele>
        <time>2009-07-19T12:05:06Z</time>
      </trkpt>
      <trkpt lat="45.772820021957159" lon="7.90137997828424">
        <ele>1843.7</ele>
        <time>2009-07-19T12:05:01Z</time>
      </trkpt>
      <trkpt lat="45.772790014743805" lon="7.901409985497594">
        <ele>1844</ele>
        <time>2009-07-19T12:04:54Z</time>
      </trkpt>
      <trkpt lat="45.772739974781871" lon="7.901409985497594">
        <ele>1847.4000000000001</ele>
        <time>2009-07-19T12:04:47Z</time>
      </trkpt>
      <trkpt lat="45.772699993103743" lon="7.90153001435101">
        <ele>1848</ele>
        <time>2009-07-19T12:04:35Z</time>
      </trkpt>
      <trkpt lat="45.772690018638968" lon="7.901579970493913">
        <ele>1849.8</ele>
        <time>2009-07-19T12:04:31Z</time>
      </trkpt>
      <trkpt lat="45.772660011425614" lon="7.901660017669201">
        <ele>1852.3</ele>
        <time>2009-07-19T12:04:24Z</time>
      </trkpt>
      <trkpt lat="45.772669985890388" lon="7.901679966598749">
        <ele>1852.5999999999999</ele>
        <time>2009-07-19T12:04:21Z</time>
      </trkpt>
      <trkpt lat="45.772669985890388" lon="7.901690024882555">
        <ele>1853.2</ele>
        <time>2009-07-19T12:04:19Z</time>
      </trkpt>
      <trkpt lat="45.77265003696084" lon="7.901860009878874">
        <ele>1856.5</ele>
        <time>2009-07-19T12:04:07Z</time>
      </trkpt>
      <trkpt lat="45.77265003696084" lon="7.901879958808422">
        <ele>1856.5</ele>
        <time>2009-07-19T12:04:03Z</time>
      </trkpt>
      <trkpt lat="45.772639978677034" lon="7.90193997323513">
        <ele>1857.5</ele>
        <time>2009-07-19T12:03:48Z</time>
      </trkpt>
      <trkpt lat="45.772669985890388" lon="7.90196000598371">
        <ele>1857.5</ele>
        <time>2009-07-19T12:03:37Z</time>
      </trkpt>
      <trkpt lat="45.77260997146368" lon="7.90193997323513">
        <ele>1858.4000000000001</ele>
        <time>2009-07-19T12:03:18Z</time>
      </trkpt>
      <trkpt lat="45.772579964250326" lon="7.90193997323513">
        <ele>1858.4000000000001</ele>
        <time>2009-07-19T12:03:16Z</time>
      </trkpt>
      <trkpt lat="45.772490026429296" lon="7.90193997323513">
        <ele>1860.2</ele>
        <time>2009-07-19T12:02:59Z</time>
      </trkpt>
      <trkpt lat="45.772460019215941" lon="7.902120016515255">
        <ele>1860.5</ele>
        <time>2009-07-19T12:02:43Z</time>
      </trkpt>
      <trkpt lat="45.772439986467361" lon="7.902169972658157">
        <ele>1861.0999999999999</ele>
        <time>2009-07-19T12:02:40Z</time>
      </trkpt>
      <trkpt lat="45.772379972040653" lon="7.902220012620091">
        <ele>1862.3</ele>
        <time>2009-07-19T12:02:24Z</time>
      </trkpt>
      <trkpt lat="45.772239994257689" lon="7.902169972658157">
        <ele>1862</ele>
        <time>2009-07-19T12:02:08Z</time>
      </trkpt>
      <trkpt lat="45.77207000926137" lon="7.902420004829764">
        <ele>1862.9000000000001</ele>
        <time>2009-07-19T12:01:49Z</time>
      </trkpt>
      <trkpt lat="45.771979987621307" lon="7.902599964290857">
        <ele>1864.8</ele>
        <time>2009-07-19T12:01:35Z</time>
      </trkpt>
      <trkpt lat="45.771949980407953" lon="7.902619997039437">
        <ele>1865.0999999999999</ele>
        <time>2009-07-19T12:01:30Z</time>
      </trkpt>
      <trkpt lat="45.771889965981245" lon="7.902680011466146">
        <ele>1865.0999999999999</ele>
        <time>2009-07-19T12:01:25Z</time>
      </trkpt>
      <trkpt lat="45.771879991516471" lon="7.902699960395694">
        <ele>1865.7</ele>
        <time>2009-07-19T12:01:25Z</time>
      </trkpt>
      <trkpt lat="45.771830035373569" lon="7.90281998924911">
        <ele>1865.7</ele>
        <time>2009-07-19T12:01:13Z</time>
      </trkpt>
      <trkpt lat="45.771679999306798" lon="7.902829963713884">
        <ele>1867.2</ele>
        <time>2009-07-19T12:00:59Z</time>
      </trkpt>
      <trkpt lat="45.771600035950541" lon="7.902780007570982">
        <ele>1869.5999999999999</ele>
        <time>2009-07-19T12:00:50Z</time>
      </trkpt>
      <trkpt lat="45.771600035950541" lon="7.902780007570982">
        <ele>1869.5999999999999</ele>
        <time>2009-07-19T12:00:48Z</time>
      </trkpt>
      <trkpt lat="45.771580003201962" lon="7.902889978140593">
        <ele>1873</ele>
        <time>2009-07-19T12:00:36Z</time>
      </trkpt>
      <trkpt lat="45.771589977666736" lon="7.902940018102527">
        <ele>1873.5999999999999</ele>
        <time>2009-07-19T12:00:36Z</time>
      </trkpt>
      <trkpt lat="45.771559970453382" lon="7.902970025315881">
        <ele>1874.5</ele>
        <time>2009-07-19T12:00:31Z</time>
      </trkpt>
      <trkpt lat="45.771540021523833" lon="7.903010006994009">
        <ele>1875.7</ele>
        <time>2009-07-19T12:00:27Z</time>
      </trkpt>
      <trkpt lat="45.771449999883771" lon="7.903000032529235">
        <ele>1877.5999999999999</ele>
        <time>2009-07-19T12:00:17Z</time>
      </trkpt>
      <trkpt lat="45.771359978243709" lon="7.903010006994009">
        <ele>1879.0999999999999</ele>
        <time>2009-07-19T12:00:08Z</time>
      </trkpt>
      <trkpt lat="45.77131999656558" lon="7.903049988672137">
        <ele>1880.5999999999999</ele>
        <time>2009-07-19T12:00:03Z</time>
      </trkpt>
      <trkpt lat="45.771250007674098" lon="7.90311997756362">
        <ele>1884.3</ele>
        <time>2009-07-19T11:59:53Z</time>
      </trkpt>
      <trkpt lat="45.771159986034036" lon="7.903170017525554">
        <ele>1887</ele>
        <time>2009-07-19T11:59:37Z</time>
      </trkpt>
      <trkpt lat="45.771099971607327" lon="7.903230031952262">
        <ele>1888.2</ele>
        <time>2009-07-19T11:59:26Z</time>
      </trkpt>
      <trkpt lat="45.771050015464425" lon="7.903340002521873">
        <ele>1891.9000000000001</ele>
        <time>2009-07-19T11:59:14Z</time>
      </trkpt>
      <trkpt lat="45.771020008251071" lon="7.903349976986647">
        <ele>1894</ele>
        <time>2009-07-19T11:59:07Z</time>
      </trkpt>
      <trkpt lat="45.770950019359589" lon="7.903340002521873">
        <ele>1895.9000000000001</ele>
        <time>2009-07-19T11:58:55Z</time>
      </trkpt>
      <trkpt lat="45.77091003768146" lon="7.903360035270453">
        <ele>1897.7</ele>
        <time>2009-07-19T11:58:43Z</time>
      </trkpt>
      <trkpt lat="45.77091003768146" lon="7.903370009735227">
        <ele>1898.3</ele>
        <time>2009-07-19T11:58:43Z</time>
      </trkpt>
      <trkpt lat="45.770850023254752" lon="7.903409991413355">
        <ele>1900.7</ele>
        <time>2009-07-19T11:58:32Z</time>
      </trkpt>
      <trkpt lat="45.770769976079464" lon="7.903449973091483">
        <ele>1904.0999999999999</ele>
        <time>2009-07-19T11:58:20Z</time>
      </trkpt>
      <trkpt lat="45.770669979974627" lon="7.903530020266771">
        <ele>1905.5999999999999</ele>
        <time>2009-07-19T11:58:08Z</time>
      </trkpt>
      <trkpt lat="45.770490020513535" lon="7.90354996919632">
        <ele>1908.4000000000001</ele>
        <time>2009-07-19T11:57:54Z</time>
      </trkpt>
      <trkpt lat="45.770420031622052" lon="7.9035700019449">
        <ele>1910.2</ele>
        <time>2009-07-19T11:57:35Z</time>
      </trkpt>
      <trkpt lat="45.770339984446764" lon="7.9035700019449">
        <ele>1909</ele>
        <time>2009-07-19T11:57:19Z</time>
      </trkpt>
      <trkpt lat="45.770239988341928" lon="7.9035700019449">
        <ele>1909.3</ele>
        <time>2009-07-19T11:57:05Z</time>
      </trkpt>
      <trkpt lat="45.770190032199025" lon="7.90359003469348">
        <ele>1909.9000000000001</ele>
        <time>2009-07-19T11:57:00Z</time>
      </trkpt>
      <trkpt lat="45.770160024985671" lon="7.903579976409674">
        <ele>1910.2</ele>
        <time>2009-07-19T11:56:58Z</time>
      </trkpt>
      <trkpt lat="45.770139992237091" lon="7.903560027480125">
        <ele>1909.9000000000001</ele>
        <time>2009-07-19T11:56:55Z</time>
      </trkpt>
      <trkpt lat="45.770109985023737" lon="7.903500013053417">
        <ele>1909.3</ele>
        <time>2009-07-19T11:56:41Z</time>
      </trkpt>
      <trkpt lat="45.7700099889189" lon="7.903470005840063">
        <ele>1908.4000000000001</ele>
        <time>2009-07-19T11:56:25Z</time>
      </trkpt>
      <trkpt lat="45.769949974492192" lon="7.903360035270453">
        <ele>1907.4000000000001</ele>
        <time>2009-07-19T11:56:10Z</time>
      </trkpt>
      <trkpt lat="45.769860036671162" lon="7.903279988095164">
        <ele>1906.5</ele>
        <time>2009-07-19T11:56:01Z</time>
      </trkpt>
      <trkpt lat="45.769830029457808" lon="7.903149984776974">
        <ele>1905.5999999999999</ele>
        <time>2009-07-19T11:55:47Z</time>
      </trkpt>
      <trkpt lat="45.769830029457808" lon="7.903149984776974">
        <ele>1906.2</ele>
        <time>2009-07-19T11:55:31Z</time>
      </trkpt>
      <trkpt lat="45.769830029457808" lon="7.903130035847426">
        <ele>1906.2</ele>
        <time>2009-07-19T11:55:12Z</time>
      </trkpt>
      <trkpt lat="45.769740007817745" lon="7.903040014207363">
        <ele>1907.0999999999999</ele>
        <time>2009-07-19T11:54:55Z</time>
      </trkpt>
      <trkpt lat="45.769579997286201" lon="7.902940018102527">
        <ele>1908.4000000000001</ele>
        <time>2009-07-19T11:54:37Z</time>
      </trkpt>
      <trkpt lat="45.769410012289882" lon="7.902900036424398">
        <ele>1908.4000000000001</ele>
        <time>2009-07-19T11:54:18Z</time>
      </trkpt>
      <trkpt lat="45.769389979541302" lon="7.902880003675818">
        <ele>1908.4000000000001</ele>
        <time>2009-07-19T11:54:13Z</time>
      </trkpt>
      <trkpt lat="45.769210020080209" lon="7.903010006994009">
        <ele>1909</ele>
        <time>2009-07-19T11:53:57Z</time>
      </trkpt>
      <trkpt lat="45.769089991226792" lon="7.903059963136911">
        <ele>1909</ele>
        <time>2009-07-19T11:53:43Z</time>
      </trkpt>
      <trkpt lat="45.769010027870536" lon="7.903089970350266">
        <ele>1908.4000000000001</ele>
        <time>2009-07-19T11:53:36Z</time>
      </trkpt>
      <trkpt lat="45.768920006230474" lon="7.903179991990328">
        <ele>1910.2</ele>
        <time>2009-07-19T11:53:19Z</time>
      </trkpt>
      <trkpt lat="45.768859991803765" lon="7.903179991990328">
        <ele>1911.0999999999999</ele>
        <time>2009-07-19T11:53:15Z</time>
      </trkpt>
      <trkpt lat="45.768839959055185" lon="7.903170017525554">
        <ele>1910.8</ele>
        <time>2009-07-19T11:53:12Z</time>
      </trkpt>
      <trkpt lat="45.768750021234155" lon="7.903110003098846">
        <ele>1910.2</ele>
        <time>2009-07-19T11:53:00Z</time>
      </trkpt>
      <trkpt lat="45.768580036237836" lon="7.903170017525554">
        <ele>1910.8</ele>
        <time>2009-07-19T11:51:48Z</time>
      </trkpt>
      <trkpt lat="45.768609959632158" lon="7.903049988672137">
        <ele>1910.8</ele>
        <time>2009-07-19T11:50:42Z</time>
      </trkpt>
      <trkpt lat="45.768620017915964" lon="7.902979999780655">
        <ele>1910.8</ele>
        <time>2009-07-19T11:50:30Z</time>
      </trkpt>
      <trkpt lat="45.76856997795403" lon="7.902919985353947">
        <ele>1912</ele>
        <time>2009-07-19T11:50:07Z</time>
      </trkpt>
      <trkpt lat="45.768509963527322" lon="7.902900036424398">
        <ele>1912.3</ele>
        <time>2009-07-19T11:49:39Z</time>
      </trkpt>
      <trkpt lat="45.768399992957711" lon="7.902919985353947">
        <ele>1912.9000000000001</ele>
        <time>2009-07-19T11:49:24Z</time>
      </trkpt>
      <trkpt lat="45.768269989639521" lon="7.902919985353947">
        <ele>1914.8</ele>
        <time>2009-07-19T11:49:10Z</time>
      </trkpt>
      <trkpt lat="45.768239982426167" lon="7.902910010889173">
        <ele>1915.7</ele>
        <time>2009-07-19T11:49:06Z</time>
      </trkpt>
      <trkpt lat="45.768120037391782" lon="7.902949992567301">
        <ele>1915.7</ele>
        <time>2009-07-19T11:48:49Z</time>
      </trkpt>
      <trkpt lat="45.768060022965074" lon="7.902959967032075">
        <ele>1916.5999999999999</ele>
        <time>2009-07-19T11:48:42Z</time>
      </trkpt>
      <trkpt lat="45.768030015751719" lon="7.902929959818721">
        <ele>1916.5999999999999</ele>
        <time>2009-07-19T11:48:38Z</time>
      </trkpt>
      <trkpt lat="45.767990034073591" lon="7.902919985353947">
        <ele>1917.8</ele>
        <time>2009-07-19T11:48:35Z</time>
      </trkpt>
      <trkpt lat="45.767970001325011" lon="7.902880003675818">
        <ele>1918.7</ele>
        <time>2009-07-19T11:48:30Z</time>
      </trkpt>
      <trkpt lat="45.767900012433529" lon="7.902870029211044">
        <ele>1920.5</ele>
        <time>2009-07-19T11:48:23Z</time>
      </trkpt>
      <trkpt lat="45.767870005220175" lon="7.902849996462464">
        <ele>1922.7</ele>
        <time>2009-07-19T11:48:19Z</time>
      </trkpt>
      <trkpt lat="45.767719969153404" lon="7.902829963713884">
        <ele>1924.8</ele>
        <time>2009-07-19T11:48:07Z</time>
      </trkpt>
      <trkpt lat="45.767660038545728" lon="7.902849996462464">
        <ele>1924.8</ele>
        <time>2009-07-19T11:47:51Z</time>
      </trkpt>
      <trkpt lat="45.767589965835214" lon="7.902810014784336">
        <ele>1927.3</ele>
        <time>2009-07-19T11:47:41Z</time>
      </trkpt>
      <trkpt lat="45.767500028014183" lon="7.902849996462464">
        <ele>1927.5999999999999</ele>
        <time>2009-07-19T11:47:32Z</time>
      </trkpt>
      <trkpt lat="45.767379999160767" lon="7.902849996462464">
        <ele>1929.4000000000001</ele>
        <time>2009-07-19T11:47:20Z</time>
      </trkpt>
      <trkpt lat="45.767340017482638" lon="7.902929959818721">
        <ele>1930.5999999999999</ele>
        <time>2009-07-19T11:47:11Z</time>
      </trkpt>
      <trkpt lat="45.767319984734058" lon="7.902940018102527">
        <ele>1931.5</ele>
        <time>2009-07-19T11:47:08Z</time>
      </trkpt>
      <trkpt lat="45.767270028591156" lon="7.902940018102527">
        <ele>1932.4000000000001</ele>
        <time>2009-07-19T11:46:56Z</time>
      </trkpt>
      <trkpt lat="45.76725997030735" lon="7.902940018102527">
        <ele>1933</ele>
        <time>2009-07-19T11:46:54Z</time>
      </trkpt>
      <trkpt lat="45.767219988629222" lon="7.902940018102527">
        <ele>1934.3</ele>
        <time>2009-07-19T11:46:47Z</time>
      </trkpt>
      <trkpt lat="45.767119992524385" lon="7.903000032529235">
        <ele>1935.8</ele>
        <time>2009-07-19T11:46:35Z</time>
      </trkpt>
      <trkpt lat="45.766999963670969" lon="7.902970025315881">
        <ele>1937.9000000000001</ele>
        <time>2009-07-19T11:46:23Z</time>
      </trkpt>
      <trkpt lat="45.766880018636584" lon="7.903030039742589">
        <ele>1940.0999999999999</ele>
        <time>2009-07-19T11:46:07Z</time>
      </trkpt>
      <trkpt lat="45.766799971461296" lon="7.903010006994009">
        <ele>1940.0999999999999</ele>
        <time>2009-07-19T11:45:58Z</time>
      </trkpt>
      <trkpt lat="45.766750015318394" lon="7.903019981458783">
        <ele>1941</ele>
        <time>2009-07-19T11:45:51Z</time>
      </trkpt>
      <trkpt lat="45.766729982569814" lon="7.903019981458783">
        <ele>1941</ele>
        <time>2009-07-19T11:45:37Z</time>
      </trkpt>
      <trkpt lat="45.766729982569814" lon="7.903010006994009">
        <ele>1943.0999999999999</ele>
        <time>2009-07-19T11:45:32Z</time>
      </trkpt>
      <trkpt lat="45.76672000810504" lon="7.902979999780655">
        <ele>1944.9000000000001</ele>
        <time>2009-07-19T11:45:22Z</time>
      </trkpt>
      <trkpt lat="45.766559997573495" lon="7.903000032529235">
        <ele>1944</ele>
        <time>2009-07-19T11:45:08Z</time>
      </trkpt>
      <trkpt lat="45.766469975933433" lon="7.902989974245429">
        <ele>1947.4000000000001</ele>
        <time>2009-07-19T11:44:54Z</time>
      </trkpt>
      <trkpt lat="45.766369979828596" lon="7.902940018102527">
        <ele>1948.9000000000001</ele>
        <time>2009-07-19T11:44:42Z</time>
      </trkpt>
      <trkpt lat="45.766279958188534" lon="7.902979999780655">
        <ele>1949.5</ele>
        <time>2009-07-19T11:44:28Z</time>
      </trkpt>
      <trkpt lat="45.766209969297051" lon="7.903049988672137">
        <ele>1950.4000000000001</ele>
        <time>2009-07-19T11:44:15Z</time>
      </trkpt>
      <trkpt lat="45.766199994832277" lon="7.903059963136911">
        <ele>1950.7</ele>
        <time>2009-07-19T11:44:14Z</time>
      </trkpt>
      <trkpt lat="45.766150038689375" lon="7.903110003098846">
        <ele>1954.0999999999999</ele>
        <time>2009-07-19T11:44:01Z</time>
      </trkpt>
      <trkpt lat="45.766139980405569" lon="7.9031400103122">
        <ele>1954.0999999999999</ele>
        <time>2009-07-19T11:44:00Z</time>
      </trkpt>
      <trkpt lat="45.766090024262667" lon="7.90311997756362">
        <ele>1956.5</ele>
        <time>2009-07-19T11:43:49Z</time>
      </trkpt>
      <trkpt lat="45.766039984300733" lon="7.903049988672137">
        <ele>1959.3</ele>
        <time>2009-07-19T11:43:37Z</time>
      </trkpt>
      <trkpt lat="45.766030009835958" lon="7.903000032529235">
        <ele>1960.8</ele>
        <time>2009-07-19T11:43:30Z</time>
      </trkpt>
      <trkpt lat="45.766020035371184" lon="7.902940018102527">
        <ele>1962.9000000000001</ele>
        <time>2009-07-19T11:43:21Z</time>
      </trkpt>
      <trkpt lat="45.765920039266348" lon="7.902829963713884">
        <ele>1965.7</ele>
        <time>2009-07-19T11:43:13Z</time>
      </trkpt>
      <trkpt lat="45.765890032052994" lon="7.902750000357628">
        <ele>1968.4000000000001</ele>
        <time>2009-07-19T11:43:02Z</time>
      </trkpt>
      <trkpt lat="45.765890032052994" lon="7.902740025892854">
        <ele>1968.4000000000001</ele>
        <time>2009-07-19T11:43:02Z</time>
      </trkpt>
      <trkpt lat="45.765869999304414" lon="7.902650004252791">
        <ele>1971.8</ele>
        <time>2009-07-19T11:42:54Z</time>
      </trkpt>
      <trkpt lat="45.765779977664351" lon="7.902589989826083">
        <ele>1972.7</ele>
        <time>2009-07-19T11:42:40Z</time>
      </trkpt>
      <trkpt lat="45.765719963237643" lon="7.902529975399375">
        <ele>1975.4000000000001</ele>
        <time>2009-07-19T11:42:31Z</time>
      </trkpt>
      <trkpt lat="45.765700014308095" lon="7.902450012043119">
        <ele>1976.9000000000001</ele>
        <time>2009-07-19T11:42:19Z</time>
      </trkpt>
      <trkpt lat="45.765579985454679" lon="7.902420004829764">
        <ele>1979.0999999999999</ele>
        <time>2009-07-19T11:42:08Z</time>
      </trkpt>
      <trkpt lat="45.76554000377655" lon="7.90241003036499">
        <ele>1981.2</ele>
        <time>2009-07-19T11:42:05Z</time>
      </trkpt>
      <trkpt lat="45.765479989349842" lon="7.902399972081184">
        <ele>1983</ele>
        <time>2009-07-19T11:42:00Z</time>
      </trkpt>
      <trkpt lat="45.76541000045836" lon="7.902429979294539">
        <ele>1986.7</ele>
        <time>2009-07-19T11:41:46Z</time>
      </trkpt>
      <trkpt lat="45.765379993245006" lon="7.902459986507893">
        <ele>1988.2</ele>
        <time>2009-07-19T11:41:37Z</time>
      </trkpt>
      <trkpt lat="45.765340011566877" lon="7.902550008147955">
        <ele>1990.3</ele>
        <time>2009-07-19T11:41:19Z</time>
      </trkpt>
      <trkpt lat="45.765310004353523" lon="7.902550008147955">
        <ele>1992.5</ele>
        <time>2009-07-19T11:41:11Z</time>
      </trkpt>
      <trkpt lat="45.765230040997267" lon="7.902550008147955">
        <ele>1993.7</ele>
        <time>2009-07-19T11:41:00Z</time>
      </trkpt>
      <trkpt lat="45.765149993821979" lon="7.902570040896535">
        <ele>1996.4000000000001</ele>
        <time>2009-07-19T11:40:46Z</time>
      </trkpt>
      <trkpt lat="45.765059972181916" lon="7.902469960972667">
        <ele>1997.7</ele>
        <time>2009-07-19T11:40:32Z</time>
      </trkpt>
      <trkpt lat="45.765019990503788" lon="7.902540033683181">
        <ele>2000.0999999999999</ele>
        <time>2009-07-19T11:40:20Z</time>
      </trkpt>
      <trkpt lat="45.765019990503788" lon="7.902559982612729">
        <ele>2000.7</ele>
        <time>2009-07-19T11:40:20Z</time>
      </trkpt>
      <trkpt lat="45.765080004930496" lon="7.902699960395694">
        <ele>2004.0999999999999</ele>
        <time>2009-07-19T11:40:01Z</time>
      </trkpt>
      <trkpt lat="45.765049997717142" lon="7.902759974822402">
        <ele>2005.5999999999999</ele>
        <time>2009-07-19T11:39:49Z</time>
      </trkpt>
      <trkpt lat="45.76498000882566" lon="7.902770033106208">
        <ele>2005</ele>
        <time>2009-07-19T11:39:38Z</time>
      </trkpt>
      <trkpt lat="45.764919994398952" lon="7.90281998924911">
        <ele>2005</ele>
        <time>2009-07-19T11:39:30Z</time>
      </trkpt>
      <trkpt lat="45.764840031042695" lon="7.90284002199769">
        <ele>2008</ele>
        <time>2009-07-19T11:39:21Z</time>
      </trkpt>
      <trkpt lat="45.764589998871088" lon="7.902849996462464">
        <ele>2007.4000000000001</ele>
        <time>2009-07-19T11:38:51Z</time>
      </trkpt>
      <trkpt lat="45.764580024406314" lon="7.902849996462464">
        <ele>2007.4000000000001</ele>
        <time>2009-07-19T11:38:51Z</time>
      </trkpt>
      <trkpt lat="45.764539958909154" lon="7.902859970927239">
        <ele>2011.7</ele>
        <time>2009-07-19T11:38:39Z</time>
      </trkpt>
      <trkpt lat="45.764499977231026" lon="7.902910010889173">
        <ele>2012.3</ele>
        <time>2009-07-19T11:38:32Z</time>
      </trkpt>
      <trkpt lat="45.764399981126189" lon="7.902919985353947">
        <ele>2012.5999999999999</ele>
        <time>2009-07-19T11:38:22Z</time>
      </trkpt>
      <trkpt lat="45.764350024983287" lon="7.902949992567301">
        <ele>2013.8</ele>
        <time>2009-07-19T11:38:10Z</time>
      </trkpt>
      <trkpt lat="45.764269977807999" lon="7.902940018102527">
        <ele>2014.7</ele>
        <time>2009-07-19T11:38:01Z</time>
      </trkpt>
      <trkpt lat="45.764260003343225" lon="7.902940018102527">
        <ele>2014.7</ele>
        <time>2009-07-19T11:37:59Z</time>
      </trkpt>
      <trkpt lat="45.764190014451742" lon="7.902959967032075">
        <ele>2018.4000000000001</ele>
        <time>2009-07-19T11:37:49Z</time>
      </trkpt>
      <trkpt lat="45.764020029455423" lon="7.903019981458783">
        <ele>2021.0999999999999</ele>
        <time>2009-07-19T11:37:31Z</time>
      </trkpt>
      <trkpt lat="45.763979963958263" lon="7.903070021420717">
        <ele>2024.2</ele>
        <time>2009-07-19T11:37:19Z</time>
      </trkpt>
      <trkpt lat="45.763879967853427" lon="7.903070021420717">
        <ele>2024.8</ele>
        <time>2009-07-19T11:37:02Z</time>
      </trkpt>
      <trkpt lat="45.76382003724575" lon="7.903100028634071">
        <ele>2024.8</ele>
        <time>2009-07-19T11:36:51Z</time>
      </trkpt>
      <trkpt lat="45.763760022819042" lon="7.9031400103122">
        <ele>2024.2</ele>
        <time>2009-07-19T11:36:41Z</time>
      </trkpt>
      <trkpt lat="45.763720041140914" lon="7.903130035847426">
        <ele>2023.9000000000001</ele>
        <time>2009-07-19T11:36:30Z</time>
      </trkpt>
      <trkpt lat="45.763509990647435" lon="7.903100028634071">
        <ele>2023.3</ele>
        <time>2009-07-19T11:36:16Z</time>
      </trkpt>
      <trkpt lat="45.76337001286447" lon="7.903059963136911">
        <ele>2023.3</ele>
        <time>2009-07-19T11:36:06Z</time>
      </trkpt>
      <trkpt lat="45.763309998437762" lon="7.903070021420717">
        <ele>2023.3</ele>
        <time>2009-07-19T11:35:57Z</time>
      </trkpt>
      <trkpt lat="45.763230035081506" lon="7.903070021420717">
        <ele>2025.4000000000001</ele>
        <time>2009-07-19T11:35:47Z</time>
      </trkpt>
      <trkpt lat="45.763130038976669" lon="7.903049988672137">
        <ele>2025.0999999999999</ele>
        <time>2009-07-19T11:35:36Z</time>
      </trkpt>
      <trkpt lat="45.763049991801381" lon="7.903040014207363">
        <ele>2026.3</ele>
        <time>2009-07-19T11:35:29Z</time>
      </trkpt>
      <trkpt lat="45.762970028445125" lon="7.902970025315881">
        <ele>2028.0999999999999</ele>
        <time>2009-07-19T11:35:15Z</time>
      </trkpt>
      <trkpt lat="45.762929962947965" lon="7.902910010889173">
        <ele>2028.0999999999999</ele>
        <time>2009-07-19T11:35:07Z</time>
      </trkpt>
      <trkpt lat="45.762799959629774" lon="7.902910010889173">
        <ele>2029.0999999999999</ele>
        <time>2009-07-19T11:34:56Z</time>
      </trkpt>
      <trkpt lat="45.762629974633455" lon="7.902929959818721">
        <ele>2029.0999999999999</ele>
        <time>2009-07-19T11:34:42Z</time>
      </trkpt>
      <trkpt lat="45.762540036812425" lon="7.902940018102527">
        <ele>2030</ele>
        <time>2009-07-19T11:34:32Z</time>
      </trkpt>
      <trkpt lat="45.762450015172362" lon="7.902970025315881">
        <ele>2030.5999999999999</ele>
        <time>2009-07-19T11:34:21Z</time>
      </trkpt>
      <trkpt lat="45.762369967997074" lon="7.903010006994009">
        <ele>2033</ele>
        <time>2009-07-19T11:34:13Z</time>
      </trkpt>
      <trkpt lat="45.762239964678884" lon="7.903059963136911">
        <ele>2034.8</ele>
        <time>2009-07-19T11:34:02Z</time>
      </trkpt>
      <trkpt lat="45.762139968574047" lon="7.903079995885491">
        <ele>2034.5</ele>
        <time>2009-07-19T11:33:52Z</time>
      </trkpt>
      <trkpt lat="45.762139968574047" lon="7.903079995885491">
        <ele>2034.5</ele>
        <time>2009-07-19T11:33:52Z</time>
      </trkpt>
      <trkpt lat="45.761790024116635" lon="7.903100028634071">
        <ele>2032.0999999999999</ele>
        <time>2009-07-19T11:33:33Z</time>
      </trkpt>
      <trkpt lat="45.761709976941347" lon="7.903179991990328">
        <ele>2032.0999999999999</ele>
        <time>2009-07-19T11:33:17Z</time>
      </trkpt>
      <trkpt lat="45.761669995263219" lon="7.903219973668456">
        <ele>2032.4000000000001</ele>
        <time>2009-07-19T11:33:05Z</time>
      </trkpt>
      <trkpt lat="45.761690028011799" lon="7.903360035270453">
        <ele>2033.5999999999999</ele>
        <time>2009-07-19T11:32:54Z</time>
      </trkpt>
      <trkpt lat="45.761679969727993" lon="7.903490038588643">
        <ele>2033.9000000000001</ele>
        <time>2009-07-19T11:32:44Z</time>
      </trkpt>
      <trkpt lat="45.761660020798445" lon="7.90359003469348">
        <ele>2034.5</ele>
        <time>2009-07-19T11:32:35Z</time>
      </trkpt>
      <trkpt lat="45.761609980836511" lon="7.903649965301156">
        <ele>2036.4000000000001</ele>
        <time>2009-07-19T11:32:23Z</time>
      </trkpt>
      <trkpt lat="45.761400014162064" lon="7.903639990836382">
        <ele>2037.5999999999999</ele>
        <time>2009-07-19T11:32:11Z</time>
      </trkpt>
      <trkpt lat="45.761379981413484" lon="7.903660023584962">
        <ele>2038.2</ele>
        <time>2009-07-19T11:32:07Z</time>
      </trkpt>
      <trkpt lat="45.761309992522001" lon="7.90367997251451">
        <ele>2039.7</ele>
        <time>2009-07-19T11:32:02Z</time>
      </trkpt>
      <trkpt lat="45.761289959773421" lon="7.903690030798316">
        <ele>2039.7</ele>
        <time>2009-07-19T11:32:00Z</time>
      </trkpt>
      <trkpt lat="45.761179989203811" lon="7.90372003801167">
        <ele>2039.7</ele>
        <time>2009-07-19T11:31:52Z</time>
      </trkpt>
      <trkpt lat="45.7610700186342" lon="7.90372003801167">
        <ele>2040.3</ele>
        <time>2009-07-19T11:31:41Z</time>
      </trkpt>
      <trkpt lat="45.76104998588562" lon="7.903709979727864">
        <ele>2041.5999999999999</ele>
        <time>2009-07-19T11:31:39Z</time>
      </trkpt>
      <trkpt lat="45.761019978672266" lon="7.90367997251451">
        <ele>2041.9000000000001</ele>
        <time>2009-07-19T11:31:36Z</time>
      </trkpt>
      <trkpt lat="45.761010004207492" lon="7.90367997251451">
        <ele>2041.5999999999999</ele>
        <time>2009-07-19T11:31:36Z</time>
      </trkpt>
      <trkpt lat="45.760870026424527" lon="7.90359003469348">
        <ele>2043.0999999999999</ele>
        <time>2009-07-19T11:31:24Z</time>
      </trkpt>
      <trkpt lat="45.760759972035885" lon="7.903600009158254">
        <ele>2044</ele>
        <time>2009-07-19T11:31:10Z</time>
      </trkpt>
      <trkpt lat="45.760710015892982" lon="7.903639990836382">
        <ele>2043.4000000000001</ele>
        <time>2009-07-19T11:31:03Z</time>
      </trkpt>
      <trkpt lat="45.760719990357757" lon="7.903760019689798">
        <ele>2044</ele>
        <time>2009-07-19T11:30:54Z</time>
      </trkpt>
      <trkpt lat="45.760689983144403" lon="7.903860015794635">
        <ele>2044</ele>
        <time>2009-07-19T11:30:42Z</time>
      </trkpt>
      <trkpt lat="45.7606400270015" lon="7.903909971937537">
        <ele>2043.4000000000001</ele>
        <time>2009-07-19T11:30:37Z</time>
      </trkpt>
      <trkpt lat="45.760559979826212" lon="7.903939979150891">
        <ele>2044</ele>
        <time>2009-07-19T11:30:26Z</time>
      </trkpt>
      <trkpt lat="45.760499965399504" lon="7.903969986364245">
        <ele>2043.0999999999999</ele>
        <time>2009-07-19T11:29:44Z</time>
      </trkpt>
      <trkpt lat="45.760550005361438" lon="7.90397996082902">
        <ele>2043.4000000000001</ele>
        <time>2009-07-19T11:28:54Z</time>
      </trkpt>
      <trkpt lat="45.76051002368331" lon="7.904060008004308">
        <ele>2041.9000000000001</ele>
        <time>2009-07-19T11:27:37Z</time>
      </trkpt>
      <trkpt lat="45.76051002368331" lon="7.90415002964437">
        <ele>2042.5</ele>
        <time>2009-07-19T11:27:25Z</time>
      </trkpt>
      <trkpt lat="45.760659975931048" lon="7.904369970783591">
        <ele>2041.5999999999999</ele>
        <time>2009-07-19T11:26:15Z</time>
      </trkpt>
      <trkpt lat="45.760689983144403" lon="7.904799962416291">
        <ele>2039.7</ele>
        <time>2009-07-19T11:25:37Z</time>
      </trkpt>
      <trkpt lat="45.760659975931048" lon="7.904819995164871">
        <ele>2041.9000000000001</ele>
        <time>2009-07-19T11:25:34Z</time>
      </trkpt>
      <trkpt lat="45.760629968717694" lon="7.904850002378225">
        <ele>2043.4000000000001</ele>
        <time>2009-07-19T11:25:30Z</time>
      </trkpt>
      <trkpt lat="45.76059996150434" lon="7.904919991269708">
        <ele>2045.5</ele>
        <time>2009-07-19T11:25:21Z</time>
      </trkpt>
      <trkpt lat="45.760589987039566" lon="7.905019987374544">
        <ele>2047.3</ele>
        <time>2009-07-19T11:25:02Z</time>
      </trkpt>
      <trkpt lat="45.76059996150434" lon="7.905059969052672">
        <ele>2050.6999999999998</ele>
        <time>2009-07-19T11:24:48Z</time>
      </trkpt>
      <trkpt lat="45.760499965399504" lon="7.905130041763187">
        <ele>2054.4000000000001</ele>
        <time>2009-07-19T11:24:36Z</time>
      </trkpt>
      <trkpt lat="45.760519998148084" lon="7.905219979584217">
        <ele>2054.4000000000001</ele>
        <time>2009-07-19T11:24:27Z</time>
      </trkpt>
      <trkpt lat="45.760550005361438" lon="7.905289968475699">
        <ele>2057.4000000000001</ele>
        <time>2009-07-19T11:24:19Z</time>
      </trkpt>
      <trkpt lat="45.760550005361438" lon="7.905370015650988">
        <ele>2060.8000000000002</ele>
        <time>2009-07-19T11:24:08Z</time>
      </trkpt>
      <trkpt lat="45.760589987039566" lon="7.905379990115762">
        <ele>2062.5999999999999</ele>
        <time>2009-07-19T11:23:54Z</time>
      </trkpt>
      <trkpt lat="45.760589987039566" lon="7.905379990115762">
        <ele>2062.5999999999999</ele>
        <time>2009-07-19T11:23:54Z</time>
      </trkpt>
      <trkpt lat="45.760580012574792" lon="7.905430030077696">
        <ele>2065.5999999999999</ele>
        <time>2009-07-19T11:23:42Z</time>
      </trkpt>
      <trkpt lat="45.760540030896664" lon="7.905549975112081">
        <ele>2066.5</ele>
        <time>2009-07-19T11:23:30Z</time>
      </trkpt>
      <trkpt lat="45.760529972612858" lon="7.905609989538789">
        <ele>2069</ele>
        <time>2009-07-19T11:23:23Z</time>
      </trkpt>
      <trkpt lat="45.760519998148084" lon="7.905679978430271">
        <ele>2071.0999999999999</ele>
        <time>2009-07-19T11:23:14Z</time>
      </trkpt>
      <trkpt lat="45.76051002368331" lon="7.905719960108399">
        <ele>2072.3000000000002</ele>
        <time>2009-07-19T11:23:07Z</time>
      </trkpt>
      <trkpt lat="45.76051002368331" lon="7.905719960108399">
        <ele>2072.9000000000001</ele>
        <time>2009-07-19T11:23:07Z</time>
      </trkpt>
      <trkpt lat="45.760499965399504" lon="7.905779974535108">
        <ele>2076</ele>
        <time>2009-07-19T11:23:00Z</time>
      </trkpt>
      <trkpt lat="45.76046995818615" lon="7.905900003388524">
        <ele>2079</ele>
        <time>2009-07-19T11:22:48Z</time>
      </trkpt>
      <trkpt lat="45.760429976508021" lon="7.905969992280006">
        <ele>2080.5999999999999</ele>
        <time>2009-07-19T11:22:36Z</time>
      </trkpt>
      <trkpt lat="45.760420002043247" lon="7.906060013920069">
        <ele>2083</ele>
        <time>2009-07-19T11:22:25Z</time>
      </trkpt>
      <trkpt lat="45.760450009256601" lon="7.906120028346777">
        <ele>2083.9000000000001</ele>
        <time>2009-07-19T11:22:10Z</time>
      </trkpt>
      <trkpt lat="45.760440034791827" lon="7.906190017238259">
        <ele>2088.1999999999998</ele>
        <time>2009-07-19T11:21:58Z</time>
      </trkpt>
      <trkpt lat="45.760440034791827" lon="7.906269980594516">
        <ele>2091.1999999999998</ele>
        <time>2009-07-19T11:21:45Z</time>
      </trkpt>
      <trkpt lat="45.760450009256601" lon="7.906339969485998">
        <ele>2094.9000000000001</ele>
        <time>2009-07-19T11:21:35Z</time>
      </trkpt>
      <trkpt lat="45.760410027578473" lon="7.906499980017543">
        <ele>2097</ele>
        <time>2009-07-19T11:21:19Z</time>
      </trkpt>
      <trkpt lat="45.760389994829893" lon="7.906529987230897">
        <ele>2098.9000000000001</ele>
        <time>2009-07-19T11:21:02Z</time>
      </trkpt>
      <trkpt lat="45.760420002043247" lon="7.906620008870959">
        <ele>2099.8000000000002</ele>
        <time>2009-07-19T11:20:48Z</time>
      </trkpt>
      <trkpt lat="45.760429976508021" lon="7.906669965013862">
        <ele>2101.5999999999999</ele>
        <time>2009-07-19T11:20:41Z</time>
      </trkpt>
      <trkpt lat="45.76048999093473" lon="7.90675001218915">
        <ele>2104</ele>
        <time>2009-07-19T11:20:29Z</time>
      </trkpt>
      <trkpt lat="45.76048999093473" lon="7.906889989972115">
        <ele>2107.4000000000001</ele>
        <time>2009-07-19T11:20:18Z</time>
      </trkpt>
      <trkpt lat="45.760450009256601" lon="7.906959978863597">
        <ele>2108.5999999999999</ele>
        <time>2009-07-19T11:20:11Z</time>
      </trkpt>
      <trkpt lat="45.760389994829893" lon="7.907059974968433">
        <ele>2112.3000000000002</ele>
        <time>2009-07-19T11:19:59Z</time>
      </trkpt>
      <trkpt lat="45.760340038686991" lon="7.907149996608496">
        <ele>2114.6999999999998</ele>
        <time>2009-07-19T11:19:45Z</time>
      </trkpt>
      <trkpt lat="45.760289998725057" lon="7.90720003657043">
        <ele>2118.4000000000001</ele>
        <time>2009-07-19T11:19:31Z</time>
      </trkpt>
      <trkpt lat="45.760229984298348" lon="7.907229959964752">
        <ele>2119.9000000000001</ele>
        <time>2009-07-19T11:19:17Z</time>
      </trkpt>
      <trkpt lat="45.7602100353688" lon="7.907270025461912">
        <ele>2120.1999999999998</ele>
        <time>2009-07-19T11:19:03Z</time>
      </trkpt>
      <trkpt lat="45.760150020942092" lon="7.90731000714004">
        <ele>2121.4000000000001</ele>
        <time>2009-07-19T11:18:49Z</time>
      </trkpt>
      <trkpt lat="45.76008003205061" lon="7.907349988818169">
        <ele>2122</ele>
        <time>2009-07-19T11:18:30Z</time>
      </trkpt>
      <trkpt lat="45.760069973766804" lon="7.907379996031523">
        <ele>2123.5</ele>
        <time>2009-07-19T11:18:13Z</time>
      </trkpt>
      <trkpt lat="45.760020017623901" lon="7.907379996031523">
        <ele>2122.9000000000001</ele>
        <time>2009-07-19T11:17:54Z</time>
      </trkpt>
      <trkpt lat="45.759969977661967" lon="7.907389970496297">
        <ele>2126.5999999999999</ele>
        <time>2009-07-19T11:17:43Z</time>
      </trkpt>
      <trkpt lat="45.759939970448613" lon="7.907419977709651">
        <ele>2129</ele>
        <time>2009-07-19T11:17:35Z</time>
      </trkpt>
      <trkpt lat="45.759869981557131" lon="7.907459959387779">
        <ele>2129.5999999999999</ele>
        <time>2009-07-19T11:17:22Z</time>
      </trkpt>
      <trkpt lat="45.759860007092357" lon="7.907479992136359">
        <ele>2130.5999999999999</ele>
        <time>2009-07-19T11:17:15Z</time>
      </trkpt>
      <trkpt lat="45.759839974343777" lon="7.907479992136359">
        <ele>2131.8000000000002</ele>
        <time>2009-07-19T11:17:12Z</time>
      </trkpt>
      <trkpt lat="45.759809967130423" lon="7.907519973814488">
        <ele>2132.4000000000001</ele>
        <time>2009-07-19T11:17:05Z</time>
      </trkpt>
      <trkpt lat="45.759779959917068" lon="7.907640002667904">
        <ele>2133.9000000000001</ele>
        <time>2009-07-19T11:16:46Z</time>
      </trkpt>
      <trkpt lat="45.75973997823894" lon="7.907709991559386">
        <ele>2137.5999999999999</ele>
        <time>2009-07-19T11:16:28Z</time>
      </trkpt>
      <trkpt lat="45.75973997823894" lon="7.907770005986095">
        <ele>2140.5999999999999</ele>
        <time>2009-07-19T11:16:04Z</time>
      </trkpt>
      <trkpt lat="45.759690022096038" lon="7.907839994877577">
        <ele>2142.6999999999998</ele>
        <time>2009-07-19T11:15:43Z</time>
      </trkpt>
      <trkpt lat="45.759679963812232" lon="7.907870002090931">
        <ele>2144.9000000000001</ele>
        <time>2009-07-19T11:15:36Z</time>
      </trkpt>
      <trkpt lat="45.75963000766933" lon="7.907900009304285">
        <ele>2146.0999999999999</ele>
        <time>2009-07-19T11:15:24Z</time>
      </trkpt>
      <trkpt lat="45.759600000455976" lon="7.907960023730993">
        <ele>2147</ele>
        <time>2009-07-19T11:14:58Z</time>
      </trkpt>
      <trkpt lat="45.759549960494041" lon="7.907969998195767">
        <ele>2147.9000000000001</ele>
        <time>2009-07-19T11:14:49Z</time>
      </trkpt>
      <trkpt lat="45.759449964389205" lon="7.907990030944347">
        <ele>2151.5999999999999</ele>
        <time>2009-07-19T11:14:30Z</time>
      </trkpt>
      <trkpt lat="45.759500004351139" lon="7.908030012622476">
        <ele>2154</ele>
        <time>2009-07-19T11:13:57Z</time>
      </trkpt>
      <trkpt lat="45.759509978815913" lon="7.908100001513958">
        <ele>2158</ele>
        <time>2009-07-19T11:13:36Z</time>
      </trkpt>
      <trkpt lat="45.759430015459657" lon="7.908160015940666">
        <ele>2160.4000000000001</ele>
        <time>2009-07-19T11:13:20Z</time>
      </trkpt>
      <trkpt lat="45.759379975497723" lon="7.908250037580729">
        <ele>2163.5</ele>
        <time>2009-07-19T11:13:08Z</time>
      </trkpt>
      <trkpt lat="45.759290037676692" lon="7.908269986510277">
        <ele>2165.3000000000002</ele>
        <time>2009-07-19T11:12:42Z</time>
      </trkpt>
      <trkpt lat="45.759279979392886" lon="7.908399989828467">
        <ele>2166.5</ele>
        <time>2009-07-19T11:12:26Z</time>
      </trkpt>
      <trkpt lat="45.759279979392886" lon="7.908420022577047">
        <ele>2167.0999999999999</ele>
        <time>2009-07-19T11:12:18Z</time>
      </trkpt>
      <trkpt lat="45.759279979392886" lon="7.908529993146658">
        <ele>2170.8000000000002</ele>
        <time>2009-07-19T11:12:04Z</time>
      </trkpt>
      <trkpt lat="45.759290037676692" lon="7.908629989251494">
        <ele>2172.9000000000001</ele>
        <time>2009-07-19T11:11:53Z</time>
      </trkpt>
      <trkpt lat="45.759249972179532" lon="7.908729985356331">
        <ele>2172</ele>
        <time>2009-07-19T11:11:41Z</time>
      </trkpt>
      <trkpt lat="45.759219964966178" lon="7.908750018104911">
        <ele>2175.0999999999999</ele>
        <time>2009-07-19T11:11:32Z</time>
      </trkpt>
      <trkpt lat="45.759190041571856" lon="7.908889995887876">
        <ele>2177.5</ele>
        <time>2009-07-19T11:11:20Z</time>
      </trkpt>
      <trkpt lat="45.759160034358501" lon="7.908969959244132">
        <ele>2178.0999999999999</ele>
        <time>2009-07-19T11:11:06Z</time>
      </trkpt>
      <trkpt lat="45.759089961647987" lon="7.909089988097549">
        <ele>2183</ele>
        <time>2009-07-19T11:10:54Z</time>
      </trkpt>
      <trkpt lat="45.759049979969859" lon="7.909170035272837">
        <ele>2183.9000000000001</ele>
        <time>2009-07-19T11:10:47Z</time>
      </trkpt>
      <trkpt lat="45.758870020508766" lon="7.909289980307221">
        <ele>2185.4000000000001</ele>
        <time>2009-07-19T11:10:31Z</time>
      </trkpt>
      <trkpt lat="45.75874999165535" lon="7.909319987520576">
        <ele>2188.1999999999998</ele>
        <time>2009-07-19T11:10:19Z</time>
      </trkpt>
      <trkpt lat="45.75872995890677" lon="7.909310013055801">
        <ele>2189.6999999999998</ele>
        <time>2009-07-19T11:10:16Z</time>
      </trkpt>
      <trkpt lat="45.758640021085739" lon="7.909310013055801">
        <ele>2191.1999999999998</ele>
        <time>2009-07-19T11:10:02Z</time>
      </trkpt>
      <trkpt lat="45.758570032194257" lon="7.90932996198535">
        <ele>2194.3000000000002</ele>
        <time>2009-07-19T11:09:55Z</time>
      </trkpt>
      <trkpt lat="45.75847003608942" lon="7.909389976412058">
        <ele>2196.4000000000001</ele>
        <time>2009-07-19T11:09:41Z</time>
      </trkpt>
      <trkpt lat="45.758359981700778" lon="7.9095000308007">
        <ele>2197</ele>
        <time>2009-07-19T11:09:25Z</time>
      </trkpt>
      <trkpt lat="45.758189996704459" lon="7.909610001370311">
        <ele>2197.3000000000002</ele>
        <time>2009-07-19T11:09:09Z</time>
      </trkpt>
      <trkpt lat="45.758110033348203" lon="7.909610001370311">
        <ele>2198.8000000000002</ele>
        <time>2009-07-19T11:09:02Z</time>
      </trkpt>
      <trkpt lat="45.757990004494786" lon="7.909679990261793">
        <ele>2199.6999999999998</ele>
        <time>2009-07-19T11:08:47Z</time>
      </trkpt>
      <trkpt lat="45.75786997564137" lon="7.909870008006692">
        <ele>2200.6999999999998</ele>
        <time>2009-07-19T11:08:29Z</time>
      </trkpt>
      <trkpt lat="45.757769979536533" lon="7.910049967467785">
        <ele>2199.4000000000001</ele>
        <time>2009-07-19T11:08:12Z</time>
      </trkpt>
      <trkpt lat="45.757660008966923" lon="7.910169996321201">
        <ele>2199.4000000000001</ele>
        <time>2009-07-19T11:07:56Z</time>
      </trkpt>
      <trkpt lat="45.757550038397312" lon="7.910430002957583">
        <ele>2201.5999999999999</ele>
        <time>2009-07-19T11:07:37Z</time>
      </trkpt>
      <trkpt lat="45.75743998400867" lon="7.910650027915835">
        <ele>2200.6999999999998</ele>
        <time>2009-07-19T11:07:18Z</time>
      </trkpt>
      <trkpt lat="45.757420035079122" lon="7.910690009593964">
        <ele>2199.6999999999998</ele>
        <time>2009-07-19T11:07:14Z</time>
      </trkpt>
      <trkpt lat="45.757330013439059" lon="7.91076997295022">
        <ele>2198.8000000000002</ele>
        <time>2009-07-19T11:06:59Z</time>
      </trkpt>
      <trkpt lat="45.757149970158935" lon="7.910869969055057">
        <ele>2196.6999999999998</ele>
        <time>2009-07-19T11:06:40Z</time>
      </trkpt>
      <trkpt lat="45.757070006802678" lon="7.910920009016991">
        <ele>2194.9000000000001</ele>
        <time>2009-07-19T11:06:27Z</time>
      </trkpt>
      <trkpt lat="45.75698995962739" lon="7.910929983481765">
        <ele>2194.3000000000002</ele>
        <time>2009-07-19T11:06:20Z</time>
      </trkpt>
      <trkpt lat="45.756840007379651" lon="7.910869969055057">
        <ele>2193</ele>
        <time>2009-07-19T11:06:12Z</time>
      </trkpt>
      <trkpt lat="45.756849981844425" lon="7.910869969055057">
        <ele>2191.5</ele>
        <time>2009-07-19T10:15:16Z</time>
      </trkpt>
      <trkpt lat="45.756840007379651" lon="7.910869969055057">
        <ele>2192.0999999999999</ele>
        <time>2009-07-19T10:14:54Z</time>
      </trkpt>
      <trkpt lat="45.756749985739589" lon="7.91081003844738">
        <ele>2192.0999999999999</ele>
        <time>2009-07-19T10:14:38Z</time>
      </trkpt>
      <trkpt lat="45.756670022383332" lon="7.910799980163574">
        <ele>2193</ele>
        <time>2009-07-19T10:14:24Z</time>
      </trkpt>
      <trkpt lat="45.756570026278496" lon="7.910820012912154">
        <ele>2193</ele>
        <time>2009-07-19T10:14:08Z</time>
      </trkpt>
    </trkseg>
  </trk>

</gpx>